Time,TemperatureF,DewpointF,PressureIn,WindDirection,WindDirectionDegrees,WindSpeedMPH,WindSpeedGustMPH,Humidity,HourlyPrecipIn,Conditions,Clouds,dailyrainin,SoftwareType,DateUTC
2013-02-25 00:00:00,25.1,20.9,30.08,WNW,284,0.0,0.0,84,0.00,,,0.00,WeatherDisplay:10.37,2013-02-25 05:00:00,
2013-02-25 00:05:00,25.1,21.2,30.07,WNW,284,0.0,0.0,85,0.00,,,0.00,WeatherDisplay:10.37,2013-02-25 05:05:00,
2013-02-25 00:10:00,25.3,21.4,30.07,WNW,284,1.0,0.0,85,0.00,,,0.00,WeatherDisplay:10.37,2013-02-25 05:10:00,
2013-02-25 00:11:00,25.4,21.5,30.07,WNW,284,0.0,0.2,85,0.00,,,0.00,WeatherDisplay:10.37,2013-02-25 05:11:00,
2013-02-25 00:15:00,25.3,21.4,30.07,WNW,284,0.0,0.0,85,0.00,,,0.00,WeatherDisplay:10.37,2013-02-25 05:15:00,
2013-02-25 00:16:00,25.3,21.4,30.07,WNW,283,0.0,0.0,85,0.00,,,0.00,WeatherDisplay:10.37,2013-02-25 05:16:00,
2013-02-25 00:20:00,25.1,21.2,30.08,WNW,284,0.0,0.0,85,0.00,,,0.00,WeatherDisplay:10.37,2013-02-25 05:20:00,
2013-02-25 00:21:00,25.0,21.1,30.07,WNW,284,0.0,0.0,85,0.00,,,0.00,WeatherDisplay:10.37,2013-02-25 05:21:00,
2013-02-25 00:22:00,25.0,21.1,30.07,WNW,284,0.0,0.0,85,0.00,,,0.00,WeatherDisplay:10.37,2013-02-25 05:22:00,
2013-02-25 00:25:00,24.9,21.0,30.07,WNW,284,0.0,0.0,85,0.00,,,0.00,WeatherDisplay:10.37,2013-02-25 05:25:00,
2013-02-25 00:26:00,24.8,20.9,30.08,WNW,284,0.0,0.0,85,0.00,,,0.00,WeatherDisplay:10.37,2013-02-25 05:26:00,
2013-02-25 00:27:00,24.8,20.9,30.07,WNW,283,0.0,0.0,85,0.00,,,0.00,WeatherDisplay:10.37,2013-02-25 05:27:00,
2013-02-25 00:31:00,24.5,20.6,30.08,WNW,283,0.0,0.0,85,0.00,,,0.00,WeatherDisplay:10.37,2013-02-25 05:31:00,
2013-02-25 00:32:00,24.4,20.5,30.08,WNW,283,0.0,0.0,85,0.00,,,0.00,WeatherDisplay:10.37,2013-02-25 05:32:00,
2013-02-25 00:36:00,24.4,20.8,30.08,WNW,283,0.0,0.0,86,0.00,,,0.00,WeatherDisplay:10.37,2013-02-25 05:36:00,
2013-02-25 00:37:00,24.4,20.8,30.08,WNW,284,0.0,0.0,86,0.00,,,0.00,WeatherDisplay:10.37,2013-02-25 05:37:00,
2013-02-25 00:41:00,24.4,20.8,30.08,WNW,283,0.0,0.0,86,0.00,,,0.00,WeatherDisplay:10.37,2013-02-25 05:41:00,
2013-02-25 00:42:00,24.4,20.5,30.08,WNW,283,0.0,0.0,85,0.00,,,0.00,WeatherDisplay:10.37,2013-02-25 05:42:00,
2013-02-25 00:46:00,24.3,20.7,30.08,WNW,283,0.0,0.0,86,0.00,,,0.00,WeatherDisplay:10.37,2013-02-25 05:46:00,
2013-02-25 00:47:00,24.3,20.7,30.08,WNW,283,0.0,0.0,86,0.00,,,0.00,WeatherDisplay:10.37,2013-02-25 05:47:00,
2013-02-25 00:51:00,24.3,20.7,30.08,WNW,284,0.0,0.0,86,0.00,,,0.00,WeatherDisplay:10.37,2013-02-25 05:51:00,
2013-02-25 00:52:00,24.3,20.7,30.08,WNW,284,0.0,0.0,86,0.00,,,0.00,WeatherDisplay:10.37,2013-02-25 05:52:00,
2013-02-25 00:53:00,24.3,20.4,30.08,WNW,284,0.0,0.0,85,0.00,,,0.00,WeatherDisplay:10.37,2013-02-25 05:53:00,
2013-02-25 00:56:00,24.2,20.3,30.08,WNW,284,0.0,0.0,85,0.00,,,0.00,WeatherDisplay:10.37,2013-02-25 05:56:00,
2013-02-25 00:57:00,24.2,20.3,30.08,WNW,283,0.0,0.0,85,0.00,,,0.00,WeatherDisplay:10.37,2013-02-25 05:57:00,
2013-02-25 00:58:00,24.2,20.3,30.08,WNW,284,0.0,0.0,85,0.00,,,0.00,WeatherDisplay:10.37,2013-02-25 05:58:00,
2013-02-25 00:59:00,24.1,20.2,30.08,WNW,283,0.0,0.0,85,0.00,,,0.00,WeatherDisplay:10.37,2013-02-25 05:59:00,
2013-02-25 01:01:00,24.0,20.1,30.08,WNW,283,0.0,0.0,85,0.00,CLR,,0.00,WeatherDisplay:10.37,2013-02-25 06:01:00,
2013-02-25 01:03:00,24.0,20.1,30.08,WNW,284,0.0,0.0,85,0.00,CLR,,0.00,WeatherDisplay:10.37,2013-02-25 06:03:00,
2013-02-25 01:04:00,24.0,20.1,30.08,WNW,283,1.0,1.0,85,0.00,CLR,,0.00,WeatherDisplay:10.37,2013-02-25 06:04:00,
2013-02-25 01:06:00,23.9,20.0,30.08,North,1,1.1,1.1,85,0.00,CLR,,0.00,WeatherDisplay:10.37,2013-02-25 06:06:00,
2013-02-25 01:08:00,24.0,20.4,30.08,North,11,1.1,1.1,86,0.00,CLR,,0.00,WeatherDisplay:10.37,2013-02-25 06:08:00,
2013-02-25 01:11:00,24.1,20.5,30.08,North,11,0.0,0.0,86,0.00,CLR,,0.00,WeatherDisplay:10.37,2013-02-25 06:11:00,
2013-02-25 01:12:00,24.1,20.5,30.08,North,11,0.0,0.0,86,0.00,CLR,,0.00,WeatherDisplay:10.37,2013-02-25 06:12:00,
2013-02-25 01:13:00,24.1,20.5,30.08,North,11,0.0,0.0,86,0.00,CLR,,0.00,WeatherDisplay:10.37,2013-02-25 06:13:00,
2013-02-25 01:14:00,24.1,20.5,30.08,North,11,0.0,0.0,86,0.00,CLR,,0.00,WeatherDisplay:10.37,2013-02-25 06:14:00,
2013-02-25 01:16:00,24.0,20.1,30.08,North,11,0.0,0.0,85,0.00,CLR,,0.00,WeatherDisplay:10.37,2013-02-25 06:16:00,
2013-02-25 01:17:00,24.0,20.1,30.08,North,11,0.0,0.0,85,0.00,CLR,,0.00,WeatherDisplay:10.37,2013-02-25 06:17:00,
2013-02-25 01:18:00,23.9,20.0,30.08,North,11,0.0,0.0,85,0.00,CLR,,0.00,WeatherDisplay:10.37,2013-02-25 06:18:00,
2013-02-25 01:19:00,23.9,20.0,30.08,North,11,0.0,0.0,85,0.00,CLR,,0.00,WeatherDisplay:10.37,2013-02-25 06:19:00,
2013-02-25 01:22:00,23.8,20.2,30.09,North,11,0.0,0.0,86,0.00,CLR,,0.00,WeatherDisplay:10.37,2013-02-25 06:22:00,
2013-02-25 01:23:00,23.9,20.3,30.09,North,11,0.0,0.0,86,0.00,CLR,,0.00,WeatherDisplay:10.37,2013-02-25 06:23:00,
2013-02-25 01:25:00,23.9,20.3,30.09,North,11,0.0,0.0,86,0.00,CLR,,0.00,WeatherDisplay:10.37,2013-02-25 06:25:00,
2013-02-25 01:27:00,24.0,20.4,30.09,North,11,0.0,0.0,86,0.00,CLR,,0.00,WeatherDisplay:10.37,2013-02-25 06:27:00,
2013-02-25 01:28:00,24.0,20.4,30.09,North,11,0.0,0.0,86,0.00,CLR,,0.00,WeatherDisplay:10.37,2013-02-25 06:28:00,
2013-02-25 01:29:00,23.9,20.0,30.09,North,11,0.0,0.0,85,0.00,CLR,,0.00,WeatherDisplay:10.37,2013-02-25 06:29:00,
2013-02-25 01:31:00,23.8,19.9,30.09,North,11,0.0,0.0,85,0.00,CLR,,0.00,WeatherDisplay:10.37,2013-02-25 06:31:00,
2013-02-25 01:32:00,23.7,20.1,30.09,North,11,0.0,0.0,86,0.00,CLR,,0.00,WeatherDisplay:10.37,2013-02-25 06:32:00,
2013-02-25 01:33:00,23.7,20.1,30.09,North,11,0.0,0.0,86,0.00,CLR,,0.00,WeatherDisplay:10.37,2013-02-25 06:33:00,
2013-02-25 01:34:00,23.7,20.1,30.09,North,11,0.0,0.0,86,0.00,CLR,,0.00,WeatherDisplay:10.37,2013-02-25 06:34:00,
2013-02-25 01:36:00,23.7,20.1,30.09,North,11,0.0,0.0,86,0.00,CLR,,0.00,WeatherDisplay:10.37,2013-02-25 06:36:00,
2013-02-25 01:37:00,23.7,20.1,30.09,North,11,0.0,0.0,86,0.00,CLR,,0.00,WeatherDisplay:10.37,2013-02-25 06:37:00,
2013-02-25 01:38:00,23.7,20.1,30.09,North,11,0.0,0.0,86,0.00,CLR,,0.00,WeatherDisplay:10.37,2013-02-25 06:38:00,
2013-02-25 01:39:00,23.8,20.2,30.09,North,11,0.0,0.0,86,0.00,CLR,,0.00,WeatherDisplay:10.37,2013-02-25 06:39:00,
2013-02-25 01:41:00,23.7,20.1,30.09,North,11,0.0,0.0,86,0.00,CLR,,0.00,WeatherDisplay:10.37,2013-02-25 06:41:00,
2013-02-25 01:42:00,23.7,20.1,30.09,North,11,0.0,0.0,86,0.00,CLR,,0.00,WeatherDisplay:10.37,2013-02-25 06:42:00,
2013-02-25 01:43:00,23.7,20.1,30.09,North,11,0.0,0.0,86,0.00,CLR,,0.00,WeatherDisplay:10.37,2013-02-25 06:43:00,
2013-02-25 01:44:00,23.7,20.1,30.09,North,11,0.0,0.0,86,0.00,CLR,,0.00,WeatherDisplay:10.37,2013-02-25 06:44:00,
2013-02-25 01:47:00,23.6,20.3,30.09,North,11,0.0,0.0,87,0.00,CLR,,0.00,WeatherDisplay:10.37,2013-02-25 06:47:00,
2013-02-25 01:48:00,23.7,20.4,30.09,North,11,0.0,0.0,87,0.00,CLR,,0.00,WeatherDisplay:10.37,2013-02-25 06:48:00,
2013-02-25 01:49:00,23.6,20.3,30.09,North,11,0.0,0.0,87,0.00,CLR,,0.00,WeatherDisplay:10.37,2013-02-25 06:49:00,
2013-02-25 01:52:00,23.7,20.4,30.09,North,11,0.0,0.0,87,0.00,CLR,,0.00,WeatherDisplay:10.37,2013-02-25 06:52:00,
2013-02-25 01:53:00,23.6,20.3,30.09,North,11,0.0,0.0,87,0.00,CLR,,0.00,WeatherDisplay:10.37,2013-02-25 06:53:00,
2013-02-25 01:54:00,23.6,20.3,30.09,North,11,0.0,0.0,87,0.00,CLR,,0.00,WeatherDisplay:10.37,2013-02-25 06:54:00,
2013-02-25 01:55:00,23.6,20.3,30.09,North,11,0.0,0.0,87,0.00,CLR,,0.00,WeatherDisplay:10.37,2013-02-25 06:55:00,
2013-02-25 01:57:00,23.5,19.9,30.09,North,11,0.0,0.0,86,0.00,CLR,,0.00,WeatherDisplay:10.37,2013-02-25 06:57:00,
2013-02-25 01:58:00,23.4,19.8,30.10,North,11,0.0,0.0,86,0.00,CLR,,0.00,WeatherDisplay:10.37,2013-02-25 06:58:00,
2013-02-25 01:59:00,23.4,20.1,30.10,North,11,0.0,0.0,87,0.00,CLR,,0.00,WeatherDisplay:10.37,2013-02-25 06:59:00,
2013-02-25 02:00:00,23.3,20.0,30.10,North,11,0.0,0.0,87,0.00,CLR,,0.00,WeatherDisplay:10.37,2013-02-25 07:00:00,
2013-02-25 02:02:00,23.2,19.9,30.10,North,11,0.0,0.0,87,0.00,CLR,,0.00,WeatherDisplay:10.37,2013-02-25 07:02:00,
2013-02-25 02:03:00,23.2,19.9,30.10,North,11,0.0,0.0,87,0.00,CLR,,0.00,WeatherDisplay:10.37,2013-02-25 07:03:00,
2013-02-25 02:04:00,23.2,19.9,30.09,North,11,0.0,0.0,87,0.00,CLR,,0.00,WeatherDisplay:10.37,2013-02-25 07:04:00,
2013-02-25 02:05:00,23.2,20.2,30.10,North,11,0.0,0.0,88,0.00,CLR,,0.00,WeatherDisplay:10.37,2013-02-25 07:05:00,
2013-02-25 02:07:00,23.2,20.2,30.10,North,11,0.0,0.0,88,0.00,CLR,,0.00,WeatherDisplay:10.37,2013-02-25 07:07:00,
2013-02-25 02:08:00,23.2,20.2,30.10,North,11,0.0,0.0,88,0.00,CLR,,0.00,WeatherDisplay:10.37,2013-02-25 07:08:00,
2013-02-25 02:09:00,23.2,20.2,30.10,North,11,0.0,0.0,88,0.00,CLR,,0.00,WeatherDisplay:10.37,2013-02-25 07:09:00,
2013-02-25 02:10:00,23.2,20.2,30.10,North,11,0.0,0.0,88,0.00,CLR,,0.00,WeatherDisplay:10.37,2013-02-25 07:10:00,
2013-02-25 02:13:00,23.2,20.2,30.10,North,11,0.0,0.0,88,0.00,CLR,,0.00,WeatherDisplay:10.37,2013-02-25 07:13:00,
2013-02-25 02:14:00,23.2,20.2,30.10,North,11,0.0,0.0,88,0.00,CLR,,0.00,WeatherDisplay:10.37,2013-02-25 07:14:00,
2013-02-25 02:15:00,23.2,20.2,30.10,North,11,0.0,0.0,88,0.00,CLR,,0.00,WeatherDisplay:10.37,2013-02-25 07:15:00,
2013-02-25 02:18:00,23.2,20.2,30.10,North,11,0.0,0.0,88,0.00,CLR,,0.00,WeatherDisplay:10.37,2013-02-25 07:18:00,
2013-02-25 02:19:00,23.1,20.1,30.10,North,11,0.0,0.0,88,0.00,CLR,,0.00,WeatherDisplay:10.37,2013-02-25 07:19:00,
2013-02-25 02:20:00,23.1,20.1,30.10,North,11,0.0,0.0,88,0.00,CLR,,0.00,WeatherDisplay:10.37,2013-02-25 07:20:00,
2013-02-25 02:23:00,23.0,20.0,30.09,North,11,0.0,0.0,88,0.00,CLR,,0.00,WeatherDisplay:10.37,2013-02-25 07:23:00,
2013-02-25 02:24:00,23.0,20.0,30.09,North,11,0.0,0.0,88,0.00,CLR,,0.00,WeatherDisplay:10.37,2013-02-25 07:24:00,
2013-02-25 02:25:00,23.1,20.1,30.10,North,11,0.0,0.0,88,0.00,CLR,,0.00,WeatherDisplay:10.37,2013-02-25 07:25:00,
2013-02-25 02:29:00,23.1,20.1,30.09,North,11,0.0,0.0,88,0.00,CLR,,0.00,WeatherDisplay:10.37,2013-02-25 07:29:00,
2013-02-25 02:30:00,23.1,20.1,30.09,North,11,0.0,0.0,88,0.00,CLR,,0.00,WeatherDisplay:10.37,2013-02-25 07:30:00,
2013-02-25 02:31:00,23.1,20.1,30.09,North,11,0.0,0.0,88,0.00,CLR,,0.00,WeatherDisplay:10.37,2013-02-25 07:31:00,
2013-02-25 02:34:00,22.9,19.9,30.09,North,11,0.0,0.0,88,0.00,CLR,,0.00,WeatherDisplay:10.37,2013-02-25 07:34:00,
2013-02-25 02:35:00,22.9,19.9,30.09,North,11,0.0,0.0,88,0.00,CLR,,0.00,WeatherDisplay:10.37,2013-02-25 07:35:00,
2013-02-25 02:36:00,22.9,19.9,30.09,North,11,0.0,0.0,88,0.00,CLR,,0.00,WeatherDisplay:10.37,2013-02-25 07:36:00,
2013-02-25 02:39:00,22.9,19.9,30.09,North,11,0.0,0.0,88,0.00,CLR,,0.00,WeatherDisplay:10.37,2013-02-25 07:39:00,
2013-02-25 02:40:00,22.8,19.8,30.09,North,11,0.0,0.0,88,0.00,CLR,,0.00,WeatherDisplay:10.37,2013-02-25 07:40:00,
2013-02-25 02:41:00,22.8,19.5,30.09,North,11,0.0,0.0,87,0.00,CLR,,0.00,WeatherDisplay:10.37,2013-02-25 07:41:00,
2013-02-25 02:44:00,22.8,19.8,30.09,NE,44,1.1,1.1,88,0.00,CLR,,0.00,WeatherDisplay:10.37,2013-02-25 07:44:00,
2013-02-25 02:45:00,22.8,19.8,30.09,NE,44,1.1,1.1,88,0.00,CLR,,0.00,WeatherDisplay:10.37,2013-02-25 07:45:00,
2013-02-25 02:46:00,22.9,20.1,30.09,NE,44,1.1,1.1,89,0.00,CLR,,0.00,WeatherDisplay:10.37,2013-02-25 07:46:00,
2013-02-25 02:49:00,23.3,20.5,30.09,SSE,147,1.1,1.1,89,0.00,CLR,,0.00,WeatherDisplay:10.37,2013-02-25 07:49:00,
2013-02-25 02:50:00,23.4,20.6,30.09,SSE,147,0.0,0.0,89,0.00,CLR,,0.00,WeatherDisplay:10.37,2013-02-25 07:50:00,
2013-02-25 02:51:00,23.5,20.7,30.09,SE,146,0.0,0.0,89,0.00,CLR,,0.00,WeatherDisplay:10.37,2013-02-25 07:51:00,
2013-02-25 02:55:00,23.7,20.7,30.09,SE,144,0.0,0.0,88,0.00,CLR,,0.00,WeatherDisplay:10.37,2013-02-25 07:55:00,
2013-02-25 02:56:00,23.6,20.3,30.09,SE,146,0.0,0.0,87,0.00,CLR,,0.00,WeatherDisplay:10.37,2013-02-25 07:56:00,
2013-02-25 03:00:00,23.5,20.2,30.09,SE,146,0.0,0.0,87,0.00,CLR,,0.00,WeatherDisplay:10.37,2013-02-25 08:00:00,
2013-02-25 03:01:00,23.5,20.2,30.09,SE,146,0.0,0.0,87,0.00,CLR,,0.00,WeatherDisplay:10.37,2013-02-25 08:01:00,
2013-02-25 03:02:00,23.5,20.2,30.09,SE,146,0.0,0.0,87,0.00,CLR,,0.00,WeatherDisplay:10.37,2013-02-25 08:02:00,
2013-02-25 03:05:00,23.5,20.5,30.09,SSE,147,0.0,0.0,88,0.00,CLR,,0.00,WeatherDisplay:10.37,2013-02-25 08:05:00,
2013-02-25 03:06:00,23.5,20.5,30.09,SSE,147,0.0,0.0,88,0.00,CLR,,0.00,WeatherDisplay:10.37,2013-02-25 08:06:00,
2013-02-25 03:07:00,23.5,20.5,30.09,SE,146,0.0,0.0,88,0.00,CLR,,0.00,WeatherDisplay:10.37,2013-02-25 08:07:00,
2013-02-25 03:11:00,23.4,20.4,30.09,SE,146,0.0,0.1,88,0.00,CLR,,0.00,WeatherDisplay:10.37,2013-02-25 08:11:00,
2013-02-25 03:12:00,23.5,20.5,30.08,SE,146,1.1,1.1,88,0.00,CLR,,0.00,WeatherDisplay:10.37,2013-02-25 08:12:00,
2013-02-25 03:16:00,23.8,20.8,30.09,SE,146,0.0,0.0,88,0.00,CLR,,0.00,WeatherDisplay:10.37,2013-02-25 08:16:00,
2013-02-25 03:17:00,23.9,20.6,30.09,SE,146,0.0,0.0,87,0.00,CLR,,0.00,WeatherDisplay:10.37,2013-02-25 08:17:00,
2013-02-25 03:21:00,24.3,21.0,30.08,SE,146,1.1,1.1,87,0.00,CLR,,0.00,WeatherDisplay:10.37,2013-02-25 08:21:00,
2013-02-25 03:22:00,24.3,20.7,30.08,SSE,147,1.1,0.0,86,0.00,CLR,,0.00,WeatherDisplay:10.37,2013-02-25 08:22:00,
2013-02-25 03:26:00,24.4,20.8,30.08,SSE,147,0.0,0.0,86,0.00,CLR,,0.00,WeatherDisplay:10.37,2013-02-25 08:26:00,
2013-02-25 03:27:00,24.4,20.8,30.09,SE,146,0.0,0.0,86,0.00,CLR,,0.00,WeatherDisplay:10.37,2013-02-25 08:27:00,
2013-02-25 03:28:00,24.4,20.8,30.09,SE,146,0.0,0.0,86,0.00,CLR,,0.00,WeatherDisplay:10.37,2013-02-25 08:28:00,
2013-02-25 03:32:00,24.3,20.4,30.09,SSE,147,0.0,0.0,85,0.00,CLR,,0.00,WeatherDisplay:10.37,2013-02-25 08:32:00,
2013-02-25 03:33:00,24.3,20.4,30.09,SE,146,0.0,0.0,85,0.00,CLR,,0.00,WeatherDisplay:10.37,2013-02-25 08:33:00,
2013-02-25 03:37:00,24.4,20.8,30.10,SE,146,0.0,0.0,86,0.00,CLR,,0.00,WeatherDisplay:10.37,2013-02-25 08:37:00,
2013-02-25 03:38:00,24.4,20.8,30.10,SE,146,0.0,0.0,86,0.00,CLR,,0.00,WeatherDisplay:10.37,2013-02-25 08:38:00,
2013-02-25 03:39:00,24.4,20.8,30.10,SSE,147,0.0,0.0,86,0.00,CLR,,0.00,WeatherDisplay:10.37,2013-02-25 08:39:00,
2013-02-25 03:42:00,24.4,20.5,30.10,SE,146,0.0,0.0,85,0.00,CLR,,0.00,WeatherDisplay:10.37,2013-02-25 08:42:00,
2013-02-25 03:43:00,24.4,20.5,30.10,SE,146,0.0,0.0,85,0.00,CLR,,0.00,WeatherDisplay:10.37,2013-02-25 08:43:00,
2013-02-25 03:44:00,24.4,20.5,30.11,SE,146,0.0,0.0,85,0.00,CLR,,0.00,WeatherDisplay:10.37,2013-02-25 08:44:00,
2013-02-25 03:48:00,24.2,20.3,30.10,SE,146,0.0,0.0,85,0.00,CLR,,0.00,WeatherDisplay:10.37,2013-02-25 08:48:00,
2013-02-25 03:49:00,24.1,20.2,30.10,SE,146,0.0,0.0,85,0.00,CLR,,0.00,WeatherDisplay:10.37,2013-02-25 08:49:00,
2013-02-25 03:53:00,23.8,20.2,30.10,SE,146,0.0,0.0,86,0.00,CLR,,0.00,WeatherDisplay:10.37,2013-02-25 08:53:00,
2013-02-25 03:54:00,23.8,20.2,30.10,SE,146,0.0,0.0,86,0.00,CLR,,0.00,WeatherDisplay:10.37,2013-02-25 08:54:00,
2013-02-25 03:58:00,23.8,20.5,30.10,SE,146,0.0,0.0,87,0.00,CLR,,0.00,WeatherDisplay:10.37,2013-02-25 08:58:00,
2013-02-25 03:59:00,23.8,20.5,30.10,SSE,147,0.0,0.0,87,0.00,CLR,,0.00,WeatherDisplay:10.37,2013-02-25 08:59:00,
2013-02-25 04:03:00,24.0,20.7,30.10,SE,146,0.0,0.0,87,0.00,CLR,,0.00,WeatherDisplay:10.37,2013-02-25 09:03:00,
2013-02-25 04:04:00,24.1,20.8,30.09,SSE,147,0.0,0.0,87,0.00,CLR,,0.00,WeatherDisplay:10.37,2013-02-25 09:04:00,
2013-02-25 04:08:00,24.3,21.0,30.10,SE,146,0.0,0.0,87,0.00,CLR,,0.00,WeatherDisplay:10.37,2013-02-25 09:08:00,
2013-02-25 04:09:00,24.4,20.8,30.09,SSE,147,0.0,0.0,86,0.00,CLR,,0.00,WeatherDisplay:10.37,2013-02-25 09:09:00,
2013-02-25 04:10:00,24.5,20.9,30.09,SSE,147,0.0,0.0,86,0.00,CLR,,0.00,WeatherDisplay:10.37,2013-02-25 09:10:00,
2013-02-25 04:13:00,24.6,21.0,30.09,SE,146,1.1,1.1,86,0.00,CLR,,0.00,WeatherDisplay:10.37,2013-02-25 09:13:00,
2013-02-25 04:14:00,24.6,20.7,30.09,SE,146,1.1,1.1,85,0.00,CLR,,0.00,WeatherDisplay:10.37,2013-02-25 09:14:00,
2013-02-25 04:15:00,24.5,20.6,30.09,SE,146,1.1,1.1,85,0.00,CLR,,0.00,WeatherDisplay:10.37,2013-02-25 09:15:00,
2013-02-25 04:18:00,24.5,20.9,30.09,SE,146,1.1,0.0,86,0.00,CLR,,0.00,WeatherDisplay:10.37,2013-02-25 09:18:00,
2013-02-25 04:19:00,24.6,21.0,30.09,SSE,147,0.0,0.0,86,0.00,CLR,,0.00,WeatherDisplay:10.37,2013-02-25 09:19:00,
2013-02-25 04:20:00,24.6,21.0,30.09,SE,146,0.0,0.0,86,0.00,CLR,,0.00,WeatherDisplay:10.37,2013-02-25 09:20:00,
2013-02-25 04:23:00,24.7,21.1,30.09,SE,146,0.0,0.0,86,0.00,CLR,,0.00,WeatherDisplay:10.37,2013-02-25 09:23:00,
2013-02-25 04:24:00,24.7,20.8,30.09,SE,146,0.0,0.0,85,0.00,CLR,,0.00,WeatherDisplay:10.37,2013-02-25 09:24:00,
2013-02-25 04:25:00,24.7,20.8,30.09,SE,146,0.0,0.0,85,0.00,CLR,,0.00,WeatherDisplay:10.37,2013-02-25 09:25:00,
2013-02-25 04:28:00,24.8,20.9,30.09,SSE,147,0.0,0.0,85,0.00,CLR,,0.00,WeatherDisplay:10.37,2013-02-25 09:28:00,
2013-02-25 04:30:00,24.8,20.9,30.09,SE,146,0.0,0.0,85,0.00,CLR,,0.00,WeatherDisplay:10.37,2013-02-25 09:30:00,
2013-02-25 04:31:00,24.8,20.9,30.09,SE,146,0.0,0.0,85,0.00,CLR,,0.00,WeatherDisplay:10.37,2013-02-25 09:31:00,
2013-02-25 04:34:00,24.9,21.3,30.10,SE,146,1.0,1.0,86,0.00,CLR,,0.00,WeatherDisplay:10.37,2013-02-25 09:34:00,
2013-02-25 04:35:00,24.9,21.3,30.10,SE,146,1.1,0.0,86,0.00,CLR,,0.00,WeatherDisplay:10.37,2013-02-25 09:35:00,
2013-02-25 04:36:00,24.9,21.3,30.10,SE,146,0.0,0.0,86,0.00,CLR,,0.00,WeatherDisplay:10.37,2013-02-25 09:36:00,
2013-02-25 04:39:00,24.9,21.0,30.10,SSE,148,1.1,1.1,85,0.00,CLR,,0.00,WeatherDisplay:10.37,2013-02-25 09:39:00,
2013-02-25 04:41:00,24.9,21.0,30.10,SSE,148,1.1,1.1,85,0.00,CLR,,0.00,WeatherDisplay:10.37,2013-02-25 09:41:00,
2013-02-25 04:44:00,24.9,21.0,30.09,SSE,148,1.1,1.1,85,0.00,CLR,,0.00,WeatherDisplay:10.37,2013-02-25 09:44:00,
2013-02-25 04:46:00,24.9,21.0,30.09,SSE,148,1.1,1.1,85,0.00,CLR,,0.00,WeatherDisplay:10.37,2013-02-25 09:46:00,
2013-02-25 04:47:00,24.9,21.0,30.09,SSE,148,1.1,1.1,85,0.00,CLR,,0.00,WeatherDisplay:10.37,2013-02-25 09:47:00,
2013-02-25 04:50:00,24.9,21.0,30.09,SE,141,1.1,1.1,85,0.00,CLR,,0.00,WeatherDisplay:10.37,2013-02-25 09:50:00,
2013-02-25 04:51:00,25.0,21.1,30.09,SSE,160,1.1,1.1,85,0.00,CLR,,0.00,WeatherDisplay:10.37,2013-02-25 09:51:00,
2013-02-25 04:52:00,24.9,21.0,30.09,SSE,161,1.1,1.1,85,0.00,CLR,,0.00,WeatherDisplay:10.37,2013-02-25 09:52:00,
2013-02-25 04:55:00,24.9,21.0,30.09,SSE,160,1.1,1.1,85,0.00,CLR,,0.00,WeatherDisplay:10.37,2013-02-25 09:55:00,
2013-02-25 04:56:00,25.0,21.1,30.10,SSE,161,1.1,1.1,85,0.00,CLR,,0.00,WeatherDisplay:10.37,2013-02-25 09:56:00,
2013-02-25 04:57:00,24.9,21.0,30.10,SSE,160,1.1,1.1,85,0.00,CLR,,0.00,WeatherDisplay:10.37,2013-02-25 09:57:00,
2013-02-25 05:00:00,24.9,21.0,30.10,SSE,160,1.1,1.1,85,0.00,CLR,,0.00,WeatherDisplay:10.37,2013-02-25 10:00:00,
2013-02-25 05:02:00,24.9,21.0,30.10,SSE,160,1.0,0.0,85,0.00,CLR,,0.00,WeatherDisplay:10.37,2013-02-25 10:02:00,
2013-02-25 05:05:00,24.9,21.3,30.10,SSE,161,1.1,1.1,86,0.00,CLR,,0.00,WeatherDisplay:10.37,2013-02-25 10:05:00,
2013-02-25 05:07:00,24.9,21.3,30.09,SSE,161,1.1,1.1,86,0.00,CLR,,0.00,WeatherDisplay:10.37,2013-02-25 10:07:00,
2013-02-25 05:10:00,25.0,21.4,30.09,SE,146,1.1,1.1,86,0.00,CLR,,0.00,WeatherDisplay:10.37,2013-02-25 10:10:00,
2013-02-25 05:12:00,25.1,21.2,30.09,SE,146,0.0,0.0,85,0.00,CLR,,0.00,WeatherDisplay:10.37,2013-02-25 10:12:00,
2013-02-25 05:16:00,25.2,21.3,30.09,SE,144,1.1,1.1,85,0.00,CLR,,0.00,WeatherDisplay:10.37,2013-02-25 10:16:00,
2013-02-25 05:17:00,25.3,21.4,30.09,SE,144,1.1,0.0,85,0.00,CLR,,0.00,WeatherDisplay:10.37,2013-02-25 10:17:00,
2013-02-25 05:18:00,25.3,21.4,30.09,SE,144,1.1,1.1,85,0.00,CLR,,0.00,WeatherDisplay:10.37,2013-02-25 10:18:00,
2013-02-25 05:22:00,25.5,21.6,30.09,SSE,149,0.0,0.0,85,0.00,CLR,,0.00,WeatherDisplay:10.37,2013-02-25 10:22:00,
2013-02-25 05:23:00,25.5,21.6,30.09,SSE,150,0.0,0.0,85,0.00,CLR,,0.00,WeatherDisplay:10.37,2013-02-25 10:23:00,
2013-02-25 05:27:00,25.6,21.7,30.09,SSE,150,0.0,0.0,85,0.00,CLR,,0.00,WeatherDisplay:10.37,2013-02-25 10:27:00,
2013-02-25 05:28:00,25.6,21.7,30.09,SSE,150,0.0,0.0,85,0.00,CLR,,0.00,WeatherDisplay:10.37,2013-02-25 10:28:00,
2013-02-25 05:29:00,25.6,21.7,30.09,SSE,150,0.0,0.0,85,0.00,CLR,,0.00,WeatherDisplay:10.37,2013-02-25 10:29:00,
2013-02-25 05:33:00,25.7,21.5,30.09,SSE,150,1.1,1.1,84,0.00,CLR,,0.00,WeatherDisplay:10.37,2013-02-25 10:33:00,
2013-02-25 05:34:00,25.7,21.5,30.09,SSE,150,1.1,1.1,84,0.00,CLR,,0.00,WeatherDisplay:10.37,2013-02-25 10:34:00,
2013-02-25 05:38:00,25.8,21.6,30.10,SSE,149,0.0,0.0,84,0.00,CLR,,0.00,WeatherDisplay:10.37,2013-02-25 10:38:00,
2013-02-25 05:39:00,25.7,21.5,30.10,SSE,150,0.0,0.0,84,0.00,CLR,,0.00,WeatherDisplay:10.37,2013-02-25 10:39:00,
2013-02-25 05:43:00,25.7,21.5,30.10,SSE,150,0.0,0.0,84,0.00,CLR,,0.00,WeatherDisplay:10.37,2013-02-25 10:43:00,
2013-02-25 05:44:00,25.7,21.5,30.10,SSE,149,0.0,0.0,84,0.00,CLR,,0.00,WeatherDisplay:10.37,2013-02-25 10:44:00,
2013-02-25 05:45:00,25.8,21.6,30.10,SSE,149,0.0,0.0,84,0.00,CLR,,0.00,WeatherDisplay:10.37,2013-02-25 10:45:00,
2013-02-25 05:48:00,25.8,21.6,30.10,SSE,149,0.0,0.0,84,0.00,CLR,,0.00,WeatherDisplay:10.37,2013-02-25 10:48:00,
2013-02-25 05:49:00,25.7,21.5,30.10,SSE,149,0.0,0.0,84,0.00,CLR,,0.00,WeatherDisplay:10.37,2013-02-25 10:49:00,
2013-02-25 05:50:00,25.7,21.5,30.10,SSE,149,0.0,0.2,84,0.00,CLR,,0.00,WeatherDisplay:10.37,2013-02-25 10:50:00,
2013-02-25 05:53:00,25.7,21.5,30.10,SSE,149,1.1,1.1,84,0.00,CLR,,0.00,WeatherDisplay:10.37,2013-02-25 10:53:00,
2013-02-25 05:54:00,25.7,21.5,30.09,SSE,150,1.1,1.1,84,0.00,CLR,,0.00,WeatherDisplay:10.37,2013-02-25 10:54:00,
2013-02-25 05:55:00,25.7,21.5,30.10,SSE,149,0.0,1.0,84,0.00,CLR,,0.00,WeatherDisplay:10.37,2013-02-25 10:55:00,
2013-02-25 05:56:00,25.8,21.6,30.09,SSE,153,1.1,1.1,84,0.00,CLR,,0.00,WeatherDisplay:10.37,2013-02-25 10:56:00,
2013-02-25 05:58:00,26.0,21.8,30.09,SE,144,2.3,2.3,84,0.00,CLR,,0.00,WeatherDisplay:10.37,2013-02-25 10:58:00,
2013-02-25 06:00:00,26.0,21.9,30.09,SSE,147,0.0,2.0,84,0.00,CLR,,0.00,WeatherDisplay:10.37,2013-02-25 11:00:00,
2013-02-25 06:01:00,26.2,21.7,30.09,SE,144,0.0,0.0,83,0.00,CLR,,0.00,WeatherDisplay:10.37,2013-02-25 11:01:00,
2013-02-25 06:04:00,26.3,21.8,30.10,SE,144,1.1,0.0,83,0.00,CLR,,0.00,WeatherDisplay:10.37,2013-02-25 11:04:00,
2013-02-25 06:05:00,26.4,21.9,30.10,SE,145,0.0,1.0,83,0.00,CLR,,0.00,WeatherDisplay:10.37,2013-02-25 11:05:00,
2013-02-25 06:06:00,26.5,22.0,30.10,SE,144,0.0,0.0,83,0.00,CLR,,0.00,WeatherDisplay:10.37,2013-02-25 11:06:00,
2013-02-25 06:09:00,26.6,21.8,30.09,SE,144,1.1,1.1,82,0.00,CLR,,0.00,WeatherDisplay:10.37,2013-02-25 11:09:00,
2013-02-25 06:10:00,26.6,21.8,30.09,SE,143,1.1,1.1,82,0.00,CLR,,0.00,WeatherDisplay:10.37,2013-02-25 11:10:00,
2013-02-25 06:11:00,26.6,21.8,30.10,SE,143,1.1,1.1,82,0.00,CLR,,0.00,WeatherDisplay:10.37,2013-02-25 11:11:00,
2013-02-25 06:14:00,26.6,21.8,30.09,SE,143,1.1,1.1,82,0.00,CLR,,0.00,WeatherDisplay:10.37,2013-02-25 11:14:00,
2013-02-25 06:15:00,26.6,21.8,30.09,SE,143,1.1,1.1,82,0.00,CLR,,0.00,WeatherDisplay:10.37,2013-02-25 11:15:00,
2013-02-25 06:16:00,26.6,21.8,30.09,SE,143,0.0,0.0,82,0.00,CLR,,0.00,WeatherDisplay:10.37,2013-02-25 11:16:00,
2013-02-25 06:19:00,26.6,22.1,30.10,SE,143,0.0,0.0,83,0.00,CLR,,0.00,WeatherDisplay:10.37,2013-02-25 11:19:00,
2013-02-25 06:20:00,26.6,22.1,30.10,SE,143,0.0,0.0,83,0.00,CLR,,0.00,WeatherDisplay:10.37,2013-02-25 11:20:00,
2013-02-25 06:21:00,26.7,22.2,30.10,SE,143,0.0,0.0,83,0.00,CLR,,0.00,WeatherDisplay:10.37,2013-02-25 11:21:00,
2013-02-25 06:22:00,26.7,22.2,30.10,SE,143,0.0,0.0,83,0.00,CLR,,0.00,WeatherDisplay:10.37,2013-02-25 11:22:00,
2013-02-25 06:24:00,26.7,21.9,30.09,SE,143,0.0,0.0,82,0.00,CLR,,0.00,WeatherDisplay:10.37,2013-02-25 11:24:00,
2013-02-25 06:26:00,26.7,21.9,30.09,SE,143,0.0,0.0,82,0.00,CLR,,0.00,WeatherDisplay:10.37,2013-02-25 11:26:00,
2013-02-25 06:27:00,26.7,21.9,30.09,SE,142,0.0,0.0,82,0.00,CLR,,0.00,WeatherDisplay:10.37,2013-02-25 11:27:00,
2013-02-25 06:29:00,26.7,21.9,30.09,SE,142,0.0,0.0,82,0.00,CLR,,0.00,WeatherDisplay:10.37,2013-02-25 11:29:00,
2013-02-25 06:32:00,26.7,21.9,30.10,SE,143,0.0,0.0,82,0.00,CLR,,0.00,WeatherDisplay:10.37,2013-02-25 11:32:00,
2013-02-25 06:33:00,26.7,21.9,30.10,SE,142,0.0,0.0,82,0.00,CLR,,0.00,WeatherDisplay:10.37,2013-02-25 11:33:00,
2013-02-25 06:35:00,26.6,21.8,30.10,SE,143,0.0,0.0,82,0.00,CLR,,0.00,WeatherDisplay:10.37,2013-02-25 11:35:00,
2013-02-25 06:37:00,26.7,22.2,30.10,SE,142,0.0,0.0,83,0.00,CLR,,0.00,WeatherDisplay:10.37,2013-02-25 11:37:00,
2013-02-25 06:38:00,26.7,22.2,30.10,SE,143,0.0,0.0,83,0.00,CLR,,0.00,WeatherDisplay:10.37,2013-02-25 11:38:00,
2013-02-25 06:40:00,26.6,21.9,30.10,SE,143,0.0,0.0,82,0.00,CLR,,0.00,WeatherDisplay:10.37,2013-02-25 11:40:00,
2013-02-25 06:42:00,26.7,22.2,30.10,SE,143,0.0,0.0,83,0.00,CLR,,0.00,WeatherDisplay:10.37,2013-02-25 11:42:00,
2013-02-25 06:43:00,26.7,22.2,30.10,SE,143,1.0,1.0,83,0.00,CLR,,0.00,WeatherDisplay:10.37,2013-02-25 11:43:00,
2013-02-25 06:44:00,26.8,22.3,30.10,SE,143,1.1,1.1,83,0.00,CLR,,0.00,WeatherDisplay:10.37,2013-02-25 11:44:00,
2013-02-25 06:45:00,26.8,22.3,30.10,SE,141,0.0,2.0,83,0.00,CLR,,0.00,WeatherDisplay:10.37,2013-02-25 11:45:00,
2013-02-25 06:48:00,27.2,22.1,30.10,East,87,2.3,2.3,81,0.00,CLR,,0.00,WeatherDisplay:10.37,2013-02-25 11:48:00,
2013-02-25 06:49:00,27.3,22.2,30.10,East,81,2.3,2.3,81,0.00,CLR,,0.00,WeatherDisplay:10.37,2013-02-25 11:49:00,
2013-02-25 06:50:00,27.4,22.3,30.10,ESE,106,1.0,3.0,81,0.00,CLR,,0.00,WeatherDisplay:10.37,2013-02-25 11:50:00,
2013-02-25 06:53:00,27.6,22.5,30.10,SE,134,2.3,2.3,81,0.00,CLR,,0.00,WeatherDisplay:10.37,2013-02-25 11:53:00,
2013-02-25 06:54:00,27.6,22.5,30.10,SSE,149,1.1,1.1,81,0.00,CLR,,0.00,WeatherDisplay:10.37,2013-02-25 11:54:00,
2013-02-25 06:55:00,27.7,22.3,30.10,SSE,149,1.1,1.1,80,0.00,CLR,,0.00,WeatherDisplay:10.37,2013-02-25 11:55:00,
2013-02-25 06:58:00,27.8,22.4,30.10,SSE,150,1.1,0.0,80,0.00,CLR,,0.00,WeatherDisplay:10.37,2013-02-25 11:58:00,
2013-02-25 06:59:00,27.8,22.4,30.10,SSE,149,0.0,0.0,80,0.00,CLR,,0.00,WeatherDisplay:10.37,2013-02-25 11:59:00,
2013-02-25 07:00:00,27.8,22.4,30.10,SSE,150,0.0,0.0,80,0.00,CLR,,0.00,WeatherDisplay:10.37,2013-02-25 12:00:00,
2013-02-25 07:04:00,27.8,22.4,30.10,SSE,150,0.0,0.0,80,0.00,CLR,,0.00,WeatherDisplay:10.37,2013-02-25 12:04:00,
2013-02-25 07:05:00,27.7,22.3,30.10,SSE,149,1.1,1.1,80,0.00,CLR,,0.00,WeatherDisplay:10.37,2013-02-25 12:05:00,
2013-02-25 07:09:00,27.7,22.6,30.10,East,82,2.0,2.0,81,0.00,CLR,,0.00,WeatherDisplay:10.37,2013-02-25 12:09:00,
2013-02-25 07:11:00,27.8,22.7,30.11,East,82,1.1,1.1,81,0.00,CLR,,0.00,WeatherDisplay:10.37,2013-02-25 12:11:00,
2013-02-25 07:14:00,28.0,22.6,30.11,SE,125,2.3,2.3,80,0.00,CLR,,0.00,WeatherDisplay:10.37,2013-02-25 12:14:00,
2013-02-25 07:15:00,28.0,22.6,30.11,ESE,112,1.0,2.0,80,0.00,CLR,,0.00,WeatherDisplay:10.37,2013-02-25 12:15:00,
2013-02-25 07:16:00,28.2,22.8,30.11,ESE,102,3.0,3.0,80,0.00,CLR,,0.00,WeatherDisplay:10.37,2013-02-25 12:16:00,
2013-02-25 07:19:00,28.5,22.8,30.10,ESE,106,3.5,3.5,79,0.00,CLR,,0.00,WeatherDisplay:10.37,2013-02-25 12:19:00,
2013-02-25 07:20:00,28.6,22.9,30.10,East,92,3.5,3.5,79,0.00,CLR,,0.00,WeatherDisplay:10.37,2013-02-25 12:20:00,
2013-02-25 07:21:00,28.7,23.0,30.10,East,81,3.5,3.5,79,0.00,CLR,,0.00,WeatherDisplay:10.37,2013-02-25 12:21:00,
2013-02-25 07:24:00,28.8,22.8,30.10,East,89,3.5,3.5,78,0.00,CLR,,0.00,WeatherDisplay:10.37,2013-02-25 12:24:00,
2013-02-25 07:25:00,28.9,22.9,30.10,East,96,3.5,3.5,78,0.00,CLR,,0.00,WeatherDisplay:10.37,2013-02-25 12:25:00,
2013-02-25 07:26:00,28.9,22.9,30.10,ESE,116,3.5,3.5,78,0.00,CLR,,0.00,WeatherDisplay:10.37,2013-02-25 12:26:00,
2013-02-25 07:29:00,29.2,22.9,30.11,East,101,5.8,5.8,77,0.00,CLR,,0.00,WeatherDisplay:10.37,2013-02-25 12:29:00,
2013-02-25 07:30:00,29.2,22.9,30.11,ESE,106,5.8,5.8,77,0.00,CLR,,0.00,WeatherDisplay:10.37,2013-02-25 12:30:00,
2013-02-25 07:31:00,29.3,23.0,30.11,East,92,7.0,7.0,77,0.00,CLR,,0.00,WeatherDisplay:10.37,2013-02-25 12:31:00,
2013-02-25 07:35:00,29.6,23.3,30.11,East,99,5.8,5.8,77,0.00,CLR,,0.00,WeatherDisplay:10.37,2013-02-25 12:35:00,
2013-02-25 07:36:00,29.7,23.1,30.11,SSE,147,6.0,6.0,76,0.00,CLR,,0.00,WeatherDisplay:10.37,2013-02-25 12:36:00,
2013-02-25 07:37:00,29.7,23.1,30.11,East,94,5.8,5.8,76,0.00,CLR,,0.00,WeatherDisplay:10.37,2013-02-25 12:37:00,
2013-02-25 07:40:00,29.9,23.3,30.11,East,92,5.8,5.8,76,0.00,CLR,,0.00,WeatherDisplay:10.37,2013-02-25 12:40:00,
2013-02-25 07:41:00,30.0,23.4,30.11,ENE,66,6.0,6.0,76,0.00,CLR,,0.00,WeatherDisplay:10.37,2013-02-25 12:41:00,
2013-02-25 07:42:00,30.0,23.4,30.11,ESE,103,5.8,5.8,76,0.00,CLR,,0.00,WeatherDisplay:10.37,2013-02-25 12:42:00,
2013-02-25 07:46:00,30.1,23.4,30.11,East,85,4.0,4.0,76,0.00,CLR,,0.00,WeatherDisplay:10.37,2013-02-25 12:46:00,
2013-02-25 07:47:00,30.2,23.5,30.11,East,84,4.6,4.6,76,0.00,CLR,,0.00,WeatherDisplay:10.37,2013-02-25 12:47:00,
2013-02-25 07:51:00,30.4,23.4,30.11,East,98,5.8,5.8,75,0.00,CLR,,0.00,WeatherDisplay:10.37,2013-02-25 12:51:00,
2013-02-25 07:52:00,30.4,23.4,30.11,East,98,5.8,5.8,75,0.00,CLR,,0.00,WeatherDisplay:10.37,2013-02-25 12:52:00,
2013-02-25 07:53:00,30.5,23.5,30.11,ENE,78,5.8,5.8,75,0.00,CLR,,0.00,WeatherDisplay:10.37,2013-02-25 12:53:00,
2013-02-25 07:56:00,30.7,23.7,30.12,East,81,7.0,7.0,75,0.00,CLR,,0.00,WeatherDisplay:10.37,2013-02-25 12:56:00,
2013-02-25 07:58:00,30.7,23.7,30.12,ESE,122,6.9,6.9,75,0.00,CLR,,0.00,WeatherDisplay:10.37,2013-02-25 12:58:00,
2013-02-25 08:02:00,30.8,23.8,30.12,East,87,5.0,5.0,75,0.00,CLR,,0.00,WeatherDisplay:10.37,2013-02-25 13:02:00,
2013-02-25 08:03:00,30.9,23.9,30.12,East,80,5.8,5.8,75,0.00,CLR,,0.00,WeatherDisplay:10.37,2013-02-25 13:03:00,
2013-02-25 08:07:00,31.0,24.0,30.12,East,85,5.8,5.8,75,0.00,CLR,,0.00,WeatherDisplay:10.37,2013-02-25 13:07:00,
2013-02-25 08:08:00,31.0,24.0,30.12,East,85,4.6,4.6,75,0.00,CLR,,0.00,WeatherDisplay:10.37,2013-02-25 13:08:00,
2013-02-25 08:09:00,31.0,24.0,30.12,East,94,4.0,4.0,75,0.00,CLR,,0.00,WeatherDisplay:10.37,2013-02-25 13:09:00,
2013-02-25 08:12:00,31.2,24.2,30.12,ESE,115,5.8,5.8,75,0.00,CLR,,0.00,WeatherDisplay:10.37,2013-02-25 13:12:00,
2013-02-25 08:14:00,31.2,23.9,30.12,ENE,77,5.8,5.8,74,0.00,CLR,,0.00,WeatherDisplay:10.37,2013-02-25 13:14:00,
2013-02-25 08:18:00,31.4,24.1,30.12,ENE,77,3.5,3.5,74,0.00,CLR,,0.00,WeatherDisplay:10.37,2013-02-25 13:18:00,
2013-02-25 08:19:00,31.4,24.1,30.12,ESE,110,4.0,4.0,74,0.00,CLR,,0.00,WeatherDisplay:10.37,2013-02-25 13:19:00,
2013-02-25 08:23:00,31.6,24.3,30.12,East,87,4.6,4.6,74,0.00,CLR,,0.00,WeatherDisplay:10.37,2013-02-25 13:23:00,
2013-02-25 08:24:00,31.7,24.4,30.13,East,87,5.8,5.8,74,0.00,CLR,,0.00,WeatherDisplay:10.37,2013-02-25 13:24:00,
2013-02-25 08:25:00,31.7,24.0,30.12,East,101,6.0,6.0,73,0.00,CLR,,0.00,WeatherDisplay:10.37,2013-02-25 13:25:00,
2013-02-25 08:28:00,31.8,24.1,30.13,East,98,8.1,8.1,73,0.00,CLR,,0.00,WeatherDisplay:10.37,2013-02-25 13:28:00,
2013-02-25 08:29:00,32.0,24.3,30.13,ESE,103,5.8,5.8,73,0.00,CLR,,0.00,WeatherDisplay:10.37,2013-02-25 13:29:00,
2013-02-25 08:30:00,32.0,24.3,30.13,ESE,116,6.9,6.9,73,0.00,CLR,,0.00,WeatherDisplay:10.37,2013-02-25 13:30:00,
2013-02-25 08:33:00,32.1,24.4,30.13,East,91,10.4,10.4,73,0.00,CLR,,0.00,WeatherDisplay:10.37,2013-02-25 13:33:00,
2013-02-25 08:34:00,32.1,24.4,30.13,East,81,9.2,9.2,73,0.00,CLR,,0.00,WeatherDisplay:10.37,2013-02-25 13:34:00,
2013-02-25 08:35:00,32.1,24.4,30.13,East,100,6.0,10.0,73,0.00,CLR,,0.00,WeatherDisplay:10.37,2013-02-25 13:35:00,
2013-02-25 08:36:00,32.2,24.2,30.13,East,80,9.2,9.2,72,0.00,CLR,,0.00,WeatherDisplay:10.37,2013-02-25 13:36:00,
2013-02-25 08:38:00,32.3,24.6,30.13,East,85,6.9,6.9,73,0.00,CLR,,0.00,WeatherDisplay:10.37,2013-02-25 13:38:00,
2013-02-25 08:39:00,32.3,24.6,30.13,East,92,6.9,6.9,73,0.00,CLR,,0.00,WeatherDisplay:10.37,2013-02-25 13:39:00,
2013-02-25 08:40:00,32.3,24.6,30.13,NE,47,7.0,7.0,73,0.00,CLR,,0.00,WeatherDisplay:10.37,2013-02-25 13:40:00,
2013-02-25 08:41:00,32.4,24.7,30.13,East,91,6.9,6.9,73,0.00,CLR,,0.00,WeatherDisplay:10.37,2013-02-25 13:41:00,
2013-02-25 08:43:00,32.5,24.5,30.13,SE,140,8.1,8.1,72,0.00,CLR,,0.00,WeatherDisplay:10.37,2013-02-25 13:43:00,
2013-02-25 08:44:00,32.5,24.5,30.12,ESE,103,8.1,8.1,72,0.00,CLR,,0.00,WeatherDisplay:10.37,2013-02-25 13:44:00,
2013-02-25 08:46:00,32.6,24.9,30.12,East,85,4.6,4.6,73,0.00,CLR,,0.00,WeatherDisplay:10.37,2013-02-25 13:46:00,
2013-02-25 08:48:00,32.7,25.0,30.12,East,88,4.6,4.6,73,0.00,CLR,,0.00,WeatherDisplay:10.37,2013-02-25 13:48:00,
2013-02-25 08:50:00,32.7,25.0,30.12,East,94,9.2,9.2,73,0.00,CLR,,0.00,WeatherDisplay:10.37,2013-02-25 13:50:00,
2013-02-25 08:51:00,32.8,25.1,30.12,NNE,25,7.0,7.0,73,0.00,CLR,,0.00,WeatherDisplay:10.37,2013-02-25 13:51:00,
2013-02-25 08:53:00,32.9,24.9,30.12,East,95,6.9,6.9,72,0.00,CLR,,0.00,WeatherDisplay:10.37,2013-02-25 13:53:00,
2013-02-25 08:56:00,33.0,25.0,30.12,East,92,6.9,6.9,72,0.00,CLR,,0.00,WeatherDisplay:10.37,2013-02-25 13:56:00,
2013-02-25 08:57:00,33.1,25.1,30.12,East,88,5.0,5.0,72,0.00,CLR,,0.00,WeatherDisplay:10.37,2013-02-25 13:57:00,
2013-02-25 08:59:00,33.1,24.7,30.12,East,80,6.0,6.0,71,0.00,CLR,,0.00,WeatherDisplay:10.37,2013-02-25 13:59:00,
2013-02-25 09:01:00,33.2,24.8,30.12,East,79,6.9,6.9,71,0.00,CLR,,0.00,WeatherDisplay:10.37,2013-02-25 14:01:00,
2013-02-25 09:02:00,33.3,24.9,30.12,ENE,68,10.0,10.0,71,0.00,CLR,,0.00,WeatherDisplay:10.37,2013-02-25 14:02:00,
2013-02-25 09:04:00,33.4,25.0,30.12,NE,53,8.0,8.0,71,0.00,CLR,,0.00,WeatherDisplay:10.37,2013-02-25 14:04:00,
2013-02-25 09:06:00,33.5,24.8,30.12,East,81,8.1,8.1,70,0.00,CLR,,0.00,WeatherDisplay:10.37,2013-02-25 14:06:00,
2013-02-25 09:07:00,33.5,25.1,30.12,East,92,10.4,10.4,71,0.00,CLR,,0.00,WeatherDisplay:10.37,2013-02-25 14:07:00,
2013-02-25 09:09:00,33.6,24.9,30.12,ESE,106,10.4,10.4,70,0.00,CLR,,0.00,WeatherDisplay:10.37,2013-02-25 14:09:00,
2013-02-25 09:11:00,33.7,25.3,30.12,North,352,6.9,6.9,71,0.00,CLR,,0.00,WeatherDisplay:10.37,2013-02-25 14:11:00,
2013-02-25 09:12:00,33.7,25.0,30.12,East,81,5.8,5.8,70,0.00,CLR,,0.00,WeatherDisplay:10.37,2013-02-25 14:12:00,
2013-02-25 09:13:00,33.7,25.0,30.12,ENE,78,6.9,6.9,70,0.00,CLR,,0.00,WeatherDisplay:10.37,2013-02-25 14:13:00,
2013-02-25 09:15:00,33.9,25.5,30.12,ENE,78,6.0,6.0,71,0.00,CLR,,0.00,WeatherDisplay:10.37,2013-02-25 14:15:00,
2013-02-25 09:17:00,34.0,25.2,30.12,East,91,6.9,6.9,70,0.00,CLR,,0.00,WeatherDisplay:10.37,2013-02-25 14:17:00,
2013-02-25 09:18:00,34.0,25.2,30.12,ENE,60,5.8,5.8,70,0.00,CLR,,0.00,WeatherDisplay:10.37,2013-02-25 14:18:00,
2013-02-25 09:21:00,34.1,25.0,30.12,ENE,73,6.9,6.9,69,0.00,CLR,,0.00,WeatherDisplay:10.37,2013-02-25 14:21:00,
2013-02-25 09:23:00,34.2,25.4,30.13,ESE,118,10.4,10.4,70,0.00,CLR,,0.00,WeatherDisplay:10.37,2013-02-25 14:23:00,
2013-02-25 09:24:00,34.2,25.1,30.13,East,98,9.2,9.2,69,0.00,CLR,,0.00,WeatherDisplay:10.37,2013-02-25 14:24:00,
2013-02-25 09:27:00,34.4,25.6,30.12,NE,43,7.0,7.0,70,0.00,CLR,,0.00,WeatherDisplay:10.37,2013-02-25 14:27:00,
2013-02-25 09:28:00,34.4,25.3,30.12,East,87,8.1,8.1,69,0.00,CLR,,0.00,WeatherDisplay:10.37,2013-02-25 14:28:00,
2013-02-25 09:29:00,34.4,25.3,30.12,East,100,9.2,9.2,69,0.00,CLR,,0.00,WeatherDisplay:10.37,2013-02-25 14:29:00,
2013-02-25 09:32:00,34.5,25.7,30.12,East,88,5.8,5.8,70,0.00,CLR,,0.00,WeatherDisplay:10.37,2013-02-25 14:32:00,
2013-02-25 09:33:00,34.6,25.5,30.12,SE,143,5.8,5.8,69,0.00,CLR,,0.00,WeatherDisplay:10.37,2013-02-25 14:33:00,
2013-02-25 09:34:00,34.7,25.6,30.12,East,90,6.9,6.9,69,0.00,CLR,,0.00,WeatherDisplay:10.37,2013-02-25 14:34:00,
2013-02-25 09:37:00,34.8,25.7,30.12,NNE,16,7.0,7.0,69,0.00,CLR,,0.00,WeatherDisplay:10.37,2013-02-25 14:37:00,
2013-02-25 09:38:00,34.9,25.8,30.12,ENE,73,8.1,8.1,69,0.00,CLR,,0.00,WeatherDisplay:10.37,2013-02-25 14:38:00,
2013-02-25 09:39:00,34.9,25.8,30.12,ENE,63,11.5,11.5,69,0.00,CLR,,0.00,WeatherDisplay:10.37,2013-02-25 14:39:00,
2013-02-25 09:42:00,35.2,26.0,30.12,East,82,8.1,8.1,69,0.00,CLR,,0.00,WeatherDisplay:10.37,2013-02-25 14:42:00,
2013-02-25 09:43:00,35.2,26.0,30.12,NE,50,6.9,6.9,69,0.00,CLR,,0.00,WeatherDisplay:10.37,2013-02-25 14:43:00,
2013-02-25 09:44:00,35.3,26.1,30.12,NNE,28,4.0,4.0,69,0.00,CLR,,0.00,WeatherDisplay:10.37,2013-02-25 14:44:00,
2013-02-25 09:47:00,35.5,26.0,30.12,SE,141,8.1,8.1,68,0.00,CLR,,0.00,WeatherDisplay:10.37,2013-02-25 14:47:00,
2013-02-25 09:48:00,35.5,26.0,30.12,ENE,73,5.8,5.8,68,0.00,CLR,,0.00,WeatherDisplay:10.37,2013-02-25 14:48:00,
2013-02-25 09:50:00,35.7,26.5,30.12,ENE,78,5.8,5.8,69,0.00,CLR,,0.00,WeatherDisplay:10.37,2013-02-25 14:50:00,
2013-02-25 09:53:00,35.8,26.3,30.12,ESE,111,6.9,6.9,68,0.00,CLR,,0.00,WeatherDisplay:10.37,2013-02-25 14:53:00,
2013-02-25 09:55:00,35.9,26.0,30.12,East,85,10.4,10.4,67,0.00,CLR,,0.00,WeatherDisplay:10.37,2013-02-25 14:55:00,
2013-02-25 09:58:00,36.1,26.6,30.12,ESE,113,5.8,5.8,68,0.00,CLR,,0.00,WeatherDisplay:10.37,2013-02-25 14:58:00,
2013-02-25 10:00:00,36.2,26.3,30.12,East,80,8.1,8.1,67,0.00,CLR,,0.00,WeatherDisplay:10.37,2013-02-25 15:00:00,
2013-02-25 10:01:00,36.2,26.3,30.12,East,91,8.1,8.1,67,0.00,CLR,,0.00,WeatherDisplay:10.37,2013-02-25 15:01:00,
2013-02-25 10:03:00,36.3,26.4,30.12,NE,51,5.8,5.8,67,0.00,CLR,,0.00,WeatherDisplay:10.37,2013-02-25 15:03:00,
2013-02-25 10:04:00,36.4,26.5,30.12,East,81,6.9,6.9,67,0.00,CLR,,0.00,WeatherDisplay:10.37,2013-02-25 15:04:00,
2013-02-25 10:05:00,36.4,26.1,30.12,East,101,6.9,6.9,66,0.00,CLR,,0.00,WeatherDisplay:10.37,2013-02-25 15:05:00,
2013-02-25 10:06:00,36.4,26.1,30.12,SE,136,6.9,6.9,66,0.00,CLR,,0.00,WeatherDisplay:10.37,2013-02-25 15:06:00,
2013-02-25 10:08:00,36.5,26.2,30.12,ENE,68,9.2,9.2,66,0.00,CLR,,0.00,WeatherDisplay:10.37,2013-02-25 15:08:00,
2013-02-25 10:09:00,36.5,25.8,30.12,NE,56,9.0,9.0,65,0.00,CLR,,0.00,WeatherDisplay:10.37,2013-02-25 15:09:00,
2013-02-25 10:11:00,36.5,25.8,30.12,ENE,71,8.1,8.1,65,0.00,CLR,,0.00,WeatherDisplay:10.37,2013-02-25 15:11:00,
2013-02-25 10:12:00,36.6,26.3,30.12,East,94,6.0,6.0,66,0.00,CLR,,0.00,WeatherDisplay:10.37,2013-02-25 15:12:00,
2013-02-25 10:13:00,36.6,25.9,30.12,NNE,30,8.1,8.1,65,0.00,CLR,,0.00,WeatherDisplay:10.37,2013-02-25 15:13:00,
2013-02-25 10:14:00,36.6,25.9,30.12,NE,55,10.4,10.4,65,0.00,CLR,,0.00,WeatherDisplay:10.37,2013-02-25 15:14:00,
2013-02-25 10:16:00,36.7,25.7,30.12,ENE,73,8.1,8.1,64,0.00,CLR,,0.00,WeatherDisplay:10.37,2013-02-25 15:16:00,
2013-02-25 10:17:00,36.7,25.7,30.12,ENE,77,9.2,9.2,64,0.00,CLR,,0.00,WeatherDisplay:10.37,2013-02-25 15:17:00,
2013-02-25 10:18:00,36.7,25.7,30.12,East,99,9.2,9.2,64,0.00,CLR,,0.00,WeatherDisplay:10.37,2013-02-25 15:18:00,
2013-02-25 10:19:00,36.8,25.8,30.12,ENE,73,10.4,10.4,64,0.00,CLR,,0.00,WeatherDisplay:10.37,2013-02-25 15:19:00,
2013-02-25 10:22:00,36.9,26.2,30.12,ESE,110,5.8,5.8,65,0.00,CLR,,0.00,WeatherDisplay:10.37,2013-02-25 15:22:00,
2013-02-25 10:23:00,37.0,26.3,30.12,ESE,116,8.1,8.1,65,0.00,CLR,,0.00,WeatherDisplay:10.37,2013-02-25 15:23:00,
2013-02-25 10:24:00,37.1,26.0,30.12,East,95,8.1,8.1,64,0.00,CLR,,0.00,WeatherDisplay:10.37,2013-02-25 15:24:00,
2013-02-25 10:27:00,37.2,25.8,30.12,ENE,73,8.1,8.1,63,0.00,CLR,,0.00,WeatherDisplay:10.37,2013-02-25 15:27:00,
2013-02-25 10:28:00,37.3,26.2,30.12,East,94,9.2,9.2,64,0.00,CLR,,0.00,WeatherDisplay:10.37,2013-02-25 15:28:00,
2013-02-25 10:30:00,37.4,26.3,30.12,ESE,118,8.1,8.1,64,0.00,CLR,,0.00,WeatherDisplay:10.37,2013-02-25 15:30:00,
2013-02-25 10:32:00,37.5,26.4,30.12,East,88,8.1,8.1,64,0.00,CLR,,0.00,WeatherDisplay:10.37,2013-02-25 15:32:00,
2013-02-25 10:33:00,37.6,26.5,30.12,East,87,11.5,11.5,64,0.00,CLR,,0.00,WeatherDisplay:10.37,2013-02-25 15:33:00,
2013-02-25 10:35:00,37.7,26.2,30.12,ESE,109,10.4,10.4,63,0.00,CLR,,0.00,WeatherDisplay:10.37,2013-02-25 15:35:00,
2013-02-25 10:38:00,37.9,26.8,30.12,East,98,8.1,8.1,64,0.00,CLR,,0.00,WeatherDisplay:10.37,2013-02-25 15:38:00,
2013-02-25 10:39:00,37.9,26.8,30.12,ENE,70,6.0,6.0,64,0.00,CLR,,0.00,WeatherDisplay:10.37,2013-02-25 15:39:00,
2013-02-25 10:40:00,38.0,26.1,30.12,ENE,68,9.2,9.2,62,0.00,CLR,,0.00,WeatherDisplay:10.37,2013-02-25 15:40:00,
2013-02-25 10:43:00,38.1,26.2,30.12,ESE,110,10.4,10.4,62,0.00,CLR,,0.00,WeatherDisplay:10.37,2013-02-25 15:43:00,
2013-02-25 10:44:00,38.2,26.7,30.12,ENE,75,10.4,10.4,63,0.00,CLR,,0.00,WeatherDisplay:10.37,2013-02-25 15:44:00,
2013-02-25 10:45:00,38.3,26.0,30.12,ENE,60,8.1,8.1,61,0.00,CLR,,0.00,WeatherDisplay:10.37,2013-02-25 15:45:00,
2013-02-25 10:48:00,38.3,26.4,30.12,East,99,8.1,8.1,62,0.00,CLR,,0.00,WeatherDisplay:10.37,2013-02-25 15:48:00,
2013-02-25 10:49:00,38.3,26.4,30.12,ESE,109,6.9,6.9,62,0.00,CLR,,0.00,WeatherDisplay:10.37,2013-02-25 15:49:00,
2013-02-25 10:51:00,38.4,26.5,30.12,East,86,6.9,6.9,62,0.00,CLR,,0.00,WeatherDisplay:10.37,2013-02-25 15:51:00,
2013-02-25 10:53:00,38.6,26.7,30.12,East,82,6.9,6.9,62,0.00,CLR,,0.00,WeatherDisplay:10.37,2013-02-25 15:53:00,
2013-02-25 10:54:00,38.7,26.8,30.11,ESE,106,7.0,7.0,62,0.00,CLR,,0.00,WeatherDisplay:10.37,2013-02-25 15:54:00,
2013-02-25 10:56:00,38.7,26.8,30.11,East,79,9.2,9.2,62,0.00,CLR,,0.00,WeatherDisplay:10.37,2013-02-25 15:56:00,
2013-02-25 10:58:00,38.8,26.9,30.11,East,81,6.0,6.0,62,0.00,CLR,,0.00,WeatherDisplay:10.37,2013-02-25 15:58:00,
2013-02-25 11:00:00,38.9,26.6,30.11,East,81,9.2,9.2,61,0.00,CLR,,0.00,WeatherDisplay:10.37,2013-02-25 16:00:00,
2013-02-25 11:01:00,38.9,26.6,30.11,East,91,10.4,10.4,61,0.00,CLR,,0.00,WeatherDisplay:10.37,2013-02-25 16:01:00,
2013-02-25 11:03:00,39.0,26.7,30.12,East,81,8.1,8.1,61,0.00,CLR,,0.00,WeatherDisplay:10.37,2013-02-25 16:03:00,
2013-02-25 11:05:00,39.1,26.8,30.12,East,101,5.8,5.8,61,0.00,CLR,,0.00,WeatherDisplay:10.37,2013-02-25 16:05:00,
2013-02-25 11:06:00,39.2,26.9,30.12,ENE,78,3.5,4.1,61,0.00,CLR,,0.00,WeatherDisplay:10.37,2013-02-25 16:06:00,
2013-02-25 11:08:00,39.3,27.0,30.12,ESE,109,5.8,5.8,61,0.00,CLR,,0.00,WeatherDisplay:10.37,2013-02-25 16:08:00,
2013-02-25 11:10:00,39.5,27.2,30.12,East,94,6.9,6.9,61,0.00,CLR,,0.00,WeatherDisplay:10.37,2013-02-25 16:10:00,
2013-02-25 11:11:00,39.5,26.8,30.12,East,82,6.9,6.9,60,0.00,CLR,,0.00,WeatherDisplay:10.37,2013-02-25 16:11:00,
2013-02-25 11:12:00,39.5,27.2,30.12,ENE,58,6.9,6.9,61,0.00,CLR,,0.00,WeatherDisplay:10.37,2013-02-25 16:12:00,
2013-02-25 11:14:00,39.6,26.8,30.12,ENE,63,10.4,10.4,60,0.00,CLR,,0.00,WeatherDisplay:10.37,2013-02-25 16:14:00,
2013-02-25 11:15:00,39.6,26.4,30.12,East,94,8.1,8.1,59,0.00,CLR,,0.00,WeatherDisplay:10.37,2013-02-25 16:15:00,
2013-02-25 11:16:00,39.7,26.9,30.12,East,88,5.0,5.0,60,0.00,CLR,,0.00,WeatherDisplay:10.37,2013-02-25 16:16:00,
2013-02-25 11:17:00,39.8,27.4,30.12,SE,124,5.8,5.8,61,0.00,CLR,,0.00,WeatherDisplay:10.37,2013-02-25 16:17:00,
2013-02-25 11:19:00,40.0,27.6,30.12,East,101,8.1,8.1,61,0.00,CLR,,0.00,WeatherDisplay:10.37,2013-02-25 16:19:00,
2013-02-25 11:20:00,40.1,26.9,30.12,ENE,77,9.0,9.0,59,0.00,CLR,,0.00,WeatherDisplay:10.37,2013-02-25 16:20:00,
2013-02-25 11:21:00,40.1,26.9,30.12,ENE,78,9.2,9.2,59,0.00,CLR,,0.00,WeatherDisplay:10.37,2013-02-25 16:21:00,
2013-02-25 11:23:00,40.1,26.5,30.12,ENE,63,11.5,11.5,58,0.00,CLR,,0.00,WeatherDisplay:10.37,2013-02-25 16:23:00,
2013-02-25 11:24:00,40.2,27.0,30.12,East,101,10.4,10.4,59,0.00,CLR,,0.00,WeatherDisplay:10.37,2013-02-25 16:24:00,
2013-02-25 11:25:00,40.2,26.6,30.12,East,95,9.2,9.2,58,0.00,CLR,,0.00,WeatherDisplay:10.37,2013-02-25 16:25:00,
2013-02-25 11:27:00,40.3,27.1,30.12,East,91,6.9,6.9,59,0.00,CLR,,0.00,WeatherDisplay:10.37,2013-02-25 16:27:00,
2013-02-25 11:28:00,40.3,27.1,30.12,East,99,5.8,5.8,59,0.00,CLR,,0.00,WeatherDisplay:10.37,2013-02-25 16:28:00,
2013-02-25 11:30:00,40.4,26.8,30.12,ESE,106,9.2,9.2,58,0.00,CLR,,0.00,WeatherDisplay:10.37,2013-02-25 16:30:00,
2013-02-25 11:31:00,40.4,26.4,30.12,East,95,7.0,7.0,57,0.00,CLR,,0.00,WeatherDisplay:10.37,2013-02-25 16:31:00,
2013-02-25 11:33:00,40.4,26.8,30.12,East,101,5.8,5.8,58,0.00,CLR,,0.00,WeatherDisplay:10.37,2013-02-25 16:33:00,
2013-02-25 11:34:00,40.5,26.9,30.12,ESE,118,5.0,5.0,58,0.00,CLR,,0.00,WeatherDisplay:10.37,2013-02-25 16:34:00,
2013-02-25 11:35:00,40.6,27.0,30.12,ESE,108,5.8,5.8,58,0.00,CLR,,0.00,WeatherDisplay:10.37,2013-02-25 16:35:00,
2013-02-25 11:36:00,40.6,27.0,30.12,ENE,67,8.1,8.1,58,0.00,CLR,,0.00,WeatherDisplay:10.37,2013-02-25 16:36:00,
2013-02-25 11:38:00,40.7,26.6,30.12,ENE,73,8.1,8.1,57,0.00,CLR,,0.00,WeatherDisplay:10.37,2013-02-25 16:38:00,
2013-02-25 11:39:00,40.7,26.6,30.12,ENE,61,8.1,8.1,57,0.00,CLR,,0.00,WeatherDisplay:10.37,2013-02-25 16:39:00,
2013-02-25 11:40:00,40.8,27.2,30.12,East,101,8.1,8.1,58,0.00,CLR,,0.00,WeatherDisplay:10.37,2013-02-25 16:40:00,
2013-02-25 11:42:00,40.9,27.7,30.12,ENE,67,7.0,7.0,59,0.00,CLR,,0.00,WeatherDisplay:10.37,2013-02-25 16:42:00,
2013-02-25 11:43:00,41.0,27.8,30.12,East,91,9.0,9.0,59,0.00,CLR,,0.00,WeatherDisplay:10.37,2013-02-25 16:43:00,
2013-02-25 11:44:00,41.0,27.3,30.12,East,87,10.4,10.4,58,0.00,CLR,,0.00,WeatherDisplay:10.37,2013-02-25 16:44:00,
2013-02-25 11:45:00,41.1,27.4,30.12,East,91,8.1,8.1,58,0.00,CLR,,0.00,WeatherDisplay:10.37,2013-02-25 16:45:00,
2013-02-25 11:47:00,41.1,27.0,30.12,East,99,8.1,8.1,57,0.00,CLR,,0.00,WeatherDisplay:10.37,2013-02-25 16:47:00,
2013-02-25 11:49:00,41.1,27.0,30.11,NE,39,8.1,8.1,57,0.00,CLR,,0.00,WeatherDisplay:10.37,2013-02-25 16:49:00,
2013-02-25 11:50:00,41.1,27.0,30.11,ESE,105,8.1,8.1,57,0.00,CLR,,0.00,WeatherDisplay:10.37,2013-02-25 16:50:00,
2013-02-25 11:51:00,41.1,27.0,30.11,East,89,8.1,8.1,57,0.00,CLR,,0.00,WeatherDisplay:10.37,2013-02-25 16:51:00,
2013-02-25 11:52:00,41.1,27.0,30.11,East,84,9.2,9.2,57,0.00,CLR,,0.00,WeatherDisplay:10.37,2013-02-25 16:52:00,
2013-02-25 11:54:00,41.2,27.5,30.11,ENE,63,6.9,6.9,58,0.00,CLR,,0.00,WeatherDisplay:10.37,2013-02-25 16:54:00,
2013-02-25 11:56:00,41.2,27.1,30.11,East,82,9.2,9.2,57,0.00,CLR,,0.00,WeatherDisplay:10.37,2013-02-25 16:56:00,
2013-02-25 11:57:00,41.3,27.2,30.11,ESE,106,8.1,8.1,57,0.00,CLR,,0.00,WeatherDisplay:10.37,2013-02-25 16:57:00,
2013-02-25 11:59:00,41.4,27.3,30.11,ENE,75,6.0,6.0,57,0.00,CLR,,0.00,WeatherDisplay:10.37,2013-02-25 16:59:00,
2013-02-25 12:01:00,41.5,27.4,30.11,ENE,57,8.1,8.1,57,0.00,CLR,,0.00,WeatherDisplay:10.37,2013-02-25 17:01:00,
2013-02-25 12:02:00,41.5,27.4,30.10,East,87,8.1,8.1,57,0.00,CLR,,0.00,WeatherDisplay:10.37,2013-02-25 17:02:00,
2013-02-25 12:04:00,41.7,27.6,30.10,ENE,73,6.0,6.0,57,0.00,CLR,,0.00,WeatherDisplay:10.37,2013-02-25 17:04:00,
2013-02-25 12:06:00,41.8,27.2,30.11,East,98,10.4,10.4,56,0.00,CLR,,0.00,WeatherDisplay:10.37,2013-02-25 17:06:00,
2013-02-25 12:07:00,41.8,27.2,30.10,East,80,8.1,8.1,56,0.00,CLR,,0.00,WeatherDisplay:10.37,2013-02-25 17:07:00,
2013-02-25 12:10:00,41.9,27.8,30.10,East,94,5.8,5.8,57,0.00,CLR,,0.00,WeatherDisplay:10.37,2013-02-25 17:10:00,
2013-02-25 12:11:00,41.9,26.9,30.10,ESE,108,9.2,9.2,55,0.00,CLR,,0.00,WeatherDisplay:10.37,2013-02-25 17:11:00,
2013-02-25 12:12:00,41.8,26.8,30.10,East,92,9.2,9.2,55,0.00,CLR,,0.00,WeatherDisplay:10.37,2013-02-25 17:12:00,
2013-02-25 12:15:00,41.9,27.3,30.10,East,88,8.1,8.1,56,0.00,CLR,,0.00,WeatherDisplay:10.37,2013-02-25 17:15:00,
2013-02-25 12:16:00,42.0,27.9,30.10,East,84,5.8,5.8,57,0.00,CLR,,0.00,WeatherDisplay:10.37,2013-02-25 17:16:00,
2013-02-25 12:17:00,42.0,27.9,30.10,NE,42,6.0,6.0,57,0.00,CLR,,0.00,WeatherDisplay:10.37,2013-02-25 17:17:00,
2013-02-25 12:20:00,42.2,27.6,30.09,East,91,9.2,9.2,56,0.00,CLR,,0.00,WeatherDisplay:10.37,2013-02-25 17:20:00,
2013-02-25 12:22:00,42.2,27.6,30.10,East,89,9.2,9.2,56,0.00,CLR,,0.00,WeatherDisplay:10.37,2013-02-25 17:22:00,
2013-02-25 12:23:00,42.2,27.6,30.10,East,93,9.2,9.2,56,0.00,CLR,,0.00,WeatherDisplay:10.37,2013-02-25 17:23:00,
2013-02-25 12:25:00,42.2,27.6,30.10,East,96,6.9,6.9,56,0.00,CLR,,0.00,WeatherDisplay:10.37,2013-02-25 17:25:00,
2013-02-25 12:27:00,42.3,28.1,30.10,ENE,73,4.6,4.6,57,0.00,CLR,,0.00,WeatherDisplay:10.37,2013-02-25 17:27:00,
2013-02-25 12:28:00,42.4,28.2,30.10,ENE,71,4.0,4.0,57,0.00,CLR,,0.00,WeatherDisplay:10.37,2013-02-25 17:28:00,
2013-02-25 12:30:00,42.5,27.5,30.09,East,80,8.1,8.1,55,0.00,CLR,,0.00,WeatherDisplay:10.37,2013-02-25 17:30:00,
2013-02-25 12:32:00,42.5,27.9,30.09,ESE,105,5.8,5.8,56,0.00,CLR,,0.00,WeatherDisplay:10.37,2013-02-25 17:32:00,
2013-02-25 12:33:00,42.5,27.9,30.09,ESE,103,5.8,5.8,56,0.00,CLR,,0.00,WeatherDisplay:10.37,2013-02-25 17:33:00,
2013-02-25 12:36:00,42.8,29.0,30.09,ESE,108,4.6,4.6,58,0.00,CLR,,0.00,WeatherDisplay:10.37,2013-02-25 17:36:00,
2013-02-25 12:37:00,43.0,28.4,30.09,East,85,6.9,6.9,56,0.00,CLR,,0.00,WeatherDisplay:10.37,2013-02-25 17:37:00,
2013-02-25 12:38:00,43.0,28.4,30.09,ENE,74,6.9,6.9,56,0.00,CLR,,0.00,WeatherDisplay:10.37,2013-02-25 17:38:00,
2013-02-25 12:41:00,43.0,27.9,30.09,NNE,30,8.1,8.1,55,0.00,CLR,,0.00,WeatherDisplay:10.37,2013-02-25 17:41:00,
2013-02-25 12:43:00,43.0,27.9,30.08,ENE,58,8.1,8.1,55,0.00,CLR,,0.00,WeatherDisplay:10.37,2013-02-25 17:43:00,
2013-02-25 12:46:00,43.1,28.0,30.08,ESE,105,6.9,6.9,55,0.00,CLR,,0.00,WeatherDisplay:10.37,2013-02-25 17:46:00,
2013-02-25 12:48:00,43.2,28.1,30.09,East,81,4.0,4.0,55,0.00,CLR,,0.00,WeatherDisplay:10.37,2013-02-25 17:48:00,
2013-02-25 12:49:00,43.2,27.7,30.09,East,83,5.8,5.8,54,0.00,CLR,,0.00,WeatherDisplay:10.37,2013-02-25 17:49:00,
2013-02-25 12:51:00,43.2,28.1,30.09,ESE,102,4.6,4.6,55,0.00,CLR,,0.00,WeatherDisplay:10.37,2013-02-25 17:51:00,
2013-02-25 12:53:00,43.3,28.2,30.09,SSE,157,5.0,5.0,55,0.00,CLR,,0.00,WeatherDisplay:10.37,2013-02-25 17:53:00,
2013-02-25 12:54:00,43.5,28.4,30.09,East,99,8.1,8.1,55,0.00,CLR,,0.00,WeatherDisplay:10.37,2013-02-25 17:54:00,
2013-02-25 12:56:00,43.5,27.9,30.09,East,96,8.1,8.1,54,0.00,CLR,,0.00,WeatherDisplay:10.37,2013-02-25 17:56:00,
2013-02-25 12:58:00,43.5,27.9,30.09,ENE,63,5.8,5.8,54,0.00,CLR,,0.00,WeatherDisplay:10.37,2013-02-25 17:58:00,
2013-02-25 12:59:00,43.5,28.4,30.09,East,81,5.8,5.8,55,0.00,CLR,,0.00,WeatherDisplay:10.37,2013-02-25 17:59:00,
2013-02-25 13:02:00,43.5,27.9,30.09,ESE,102,6.9,6.9,54,0.00,CLR,,0.00,WeatherDisplay:10.37,2013-02-25 18:02:00,
2013-02-25 13:03:00,43.6,28.5,30.09,East,93,5.0,5.0,55,0.00,CLR,,0.00,WeatherDisplay:10.37,2013-02-25 18:03:00,
2013-02-25 13:04:00,43.6,28.0,30.09,East,92,6.0,6.0,54,0.00,CLR,,0.00,WeatherDisplay:10.37,2013-02-25 18:04:00,
2013-02-25 13:07:00,43.6,28.0,30.09,ENE,78,4.6,4.6,54,0.00,CLR,,0.00,WeatherDisplay:10.37,2013-02-25 18:07:00,
2013-02-25 13:08:00,43.7,28.1,30.08,East,101,4.6,4.6,54,0.00,CLR,,0.00,WeatherDisplay:10.37,2013-02-25 18:08:00,
2013-02-25 13:09:00,43.7,28.1,30.08,East,101,5.0,5.0,54,0.00,CLR,,0.00,WeatherDisplay:10.37,2013-02-25 18:09:00,
2013-02-25 13:10:00,43.7,27.7,30.08,East,81,6.9,6.9,53,0.00,CLR,,0.00,WeatherDisplay:10.37,2013-02-25 18:10:00,
2013-02-25 13:12:00,43.7,27.7,30.07,ENE,65,8.1,8.1,53,0.00,CLR,,0.00,WeatherDisplay:10.37,2013-02-25 18:12:00,
2013-02-25 13:13:00,43.7,27.7,30.07,ESE,102,6.9,6.9,53,0.00,CLR,,0.00,WeatherDisplay:10.37,2013-02-25 18:13:00,
2013-02-25 13:14:00,43.8,28.2,30.07,NE,40,3.5,3.5,54,0.00,CLR,,0.00,WeatherDisplay:10.37,2013-02-25 18:14:00,
2013-02-25 13:15:00,44.0,28.9,30.07,East,95,5.0,5.0,55,0.00,CLR,,0.00,WeatherDisplay:10.37,2013-02-25 18:15:00,
2013-02-25 13:18:00,44.1,28.0,30.07,East,94,8.1,8.1,53,0.00,CLR,,0.00,WeatherDisplay:10.37,2013-02-25 18:18:00,
2013-02-25 13:19:00,44.2,28.1,30.07,East,84,4.6,4.6,53,0.00,CLR,,0.00,WeatherDisplay:10.37,2013-02-25 18:19:00,
2013-02-25 13:21:00,44.3,28.7,30.07,SE,127,6.9,6.9,54,0.00,CLR,,0.00,WeatherDisplay:10.37,2013-02-25 18:21:00,
2013-02-25 13:23:00,44.3,28.7,30.07,East,95,9.0,9.0,54,0.00,CLR,,0.00,WeatherDisplay:10.37,2013-02-25 18:23:00,
2013-02-25 13:24:00,44.2,27.7,30.07,East,101,10.4,10.4,52,0.00,CLR,,0.00,WeatherDisplay:10.37,2013-02-25 18:24:00,
2013-02-25 13:26:00,44.1,28.0,30.07,East,88,8.1,8.1,53,0.00,CLR,,0.00,WeatherDisplay:10.37,2013-02-25 18:26:00,
2013-02-25 13:28:00,44.1,28.0,30.07,East,86,5.8,5.8,53,0.00,CLR,,0.00,WeatherDisplay:10.37,2013-02-25 18:28:00,
2013-02-25 13:29:00,44.1,28.5,30.07,East,99,5.8,5.8,54,0.00,CLR,,0.00,WeatherDisplay:10.37,2013-02-25 18:29:00,
2013-02-25 13:30:00,44.2,28.6,30.06,East,94,3.5,3.5,54,0.00,CLR,,0.00,WeatherDisplay:10.37,2013-02-25 18:30:00,
2013-02-25 13:32:00,44.3,29.1,30.06,East,91,8.1,8.1,55,0.00,CLR,,0.00,WeatherDisplay:10.37,2013-02-25 18:32:00,
2013-02-25 13:34:00,44.3,28.2,30.06,SE,144,5.8,5.9,53,0.00,CLR,,0.00,WeatherDisplay:10.37,2013-02-25 18:34:00,
2013-02-25 13:35:00,44.3,27.8,30.06,SSE,147,9.2,9.2,52,0.00,CLR,,0.00,WeatherDisplay:10.37,2013-02-25 18:35:00,
2013-02-25 13:37:00,44.4,28.8,30.05,East,80,6.9,6.9,54,0.00,CLR,,0.00,WeatherDisplay:10.37,2013-02-25 18:37:00,
2013-02-25 13:39:00,44.5,28.4,30.06,East,83,6.9,6.9,53,0.00,CLR,,0.00,WeatherDisplay:10.37,2013-02-25 18:39:00,
2013-02-25 13:40:00,44.5,28.4,30.06,ENE,67,8.1,8.1,53,0.00,CLR,,0.00,WeatherDisplay:10.37,2013-02-25 18:40:00,
2013-02-25 13:43:00,44.7,28.1,30.06,ESE,110,5.8,5.8,52,0.00,CLR,,0.00,WeatherDisplay:10.37,2013-02-25 18:43:00,
2013-02-25 13:44:00,44.6,28.0,30.06,East,81,6.9,6.9,52,0.00,CLR,,0.00,WeatherDisplay:10.37,2013-02-25 18:44:00,
2013-02-25 13:45:00,44.7,28.6,30.06,ESE,103,6.9,6.9,53,0.00,CLR,,0.00,WeatherDisplay:10.37,2013-02-25 18:45:00,
2013-02-25 13:46:00,44.7,28.6,30.06,East,94,3.5,3.5,53,0.00,CLR,,0.00,WeatherDisplay:10.37,2013-02-25 18:46:00,
2013-02-25 13:49:00,44.9,29.2,30.07,East,88,4.0,4.0,54,0.00,,,0.00,WeatherDisplay:10.37,2013-02-25 18:49:00,
2013-02-25 13:50:00,44.9,28.8,30.07,ENE,78,5.8,5.8,53,0.00,,,0.00,WeatherDisplay:10.37,2013-02-25 18:50:00,
2013-02-25 13:51:00,44.9,28.8,30.06,NE,37,5.8,5.8,53,0.00,,,0.00,WeatherDisplay:10.37,2013-02-25 18:51:00,
2013-02-25 13:54:00,44.9,27.8,30.06,ENE,57,6.9,6.9,51,0.00,,,0.00,WeatherDisplay:10.37,2013-02-25 18:54:00,
2013-02-25 13:55:00,44.9,27.8,30.06,ENE,70,5.0,7.0,51,0.00,,,0.00,WeatherDisplay:10.37,2013-02-25 18:55:00,
2013-02-25 13:56:00,45.0,28.4,30.07,ENE,71,3.5,3.5,52,0.00,,,0.00,WeatherDisplay:10.37,2013-02-25 18:56:00,
2013-02-25 13:59:00,45.2,28.1,30.06,East,96,6.9,6.9,51,0.00,,,0.00,WeatherDisplay:10.37,2013-02-25 18:59:00,
2013-02-25 14:00:00,45.2,28.6,30.06,East,94,5.8,5.8,52,0.00,,,0.00,WeatherDisplay:10.37,2013-02-25 19:00:00,
2013-02-25 14:01:00,45.3,28.7,30.06,ENE,57,5.0,5.0,52,0.00,,,0.00,WeatherDisplay:10.37,2013-02-25 19:01:00,
2013-02-25 14:04:00,45.3,28.7,30.06,East,95,4.6,4.6,52,0.00,,,0.00,WeatherDisplay:10.37,2013-02-25 19:04:00,
2013-02-25 14:05:00,45.4,28.8,30.06,ENE,69,4.0,4.0,52,0.00,,,0.00,WeatherDisplay:10.37,2013-02-25 19:05:00,
2013-02-25 14:06:00,45.4,28.8,30.06,East,84,5.0,5.0,52,0.00,,,0.00,WeatherDisplay:10.37,2013-02-25 19:06:00,
2013-02-25 14:09:00,45.7,29.5,30.06,ENE,67,5.8,5.8,53,0.00,,,0.00,WeatherDisplay:10.37,2013-02-25 19:09:00,
2013-02-25 14:11:00,45.9,29.2,30.06,NE,46,5.8,5.8,52,0.00,,,0.00,WeatherDisplay:10.37,2013-02-25 19:11:00,
2013-02-25 14:12:00,46.0,28.4,30.05,East,96,8.1,8.1,50,0.00,,,0.00,WeatherDisplay:10.37,2013-02-25 19:12:00,
2013-02-25 14:14:00,45.9,28.3,30.06,East,84,6.9,6.9,50,0.00,,,0.00,WeatherDisplay:10.37,2013-02-25 19:14:00,
2013-02-25 14:16:00,45.9,29.2,30.06,East,89,3.0,3.0,52,0.00,,,0.00,WeatherDisplay:10.37,2013-02-25 19:16:00,
2013-02-25 14:17:00,46.0,28.9,30.06,East,89,6.0,6.0,51,0.00,,,0.00,WeatherDisplay:10.37,2013-02-25 19:17:00,
2013-02-25 14:21:00,46.1,29.0,30.06,ESE,123,5.8,5.8,51,0.00,,,0.00,WeatherDisplay:10.37,2013-02-25 19:21:00,
2013-02-25 14:23:00,46.2,29.1,30.06,ENE,61,4.6,4.6,51,0.00,,,0.00,WeatherDisplay:10.37,2013-02-25 19:23:00,
2013-02-25 14:26:00,46.5,29.8,30.06,East,84,3.5,3.5,52,0.00,,,0.00,WeatherDisplay:10.37,2013-02-25 19:26:00,
2013-02-25 14:27:00,46.7,30.0,30.05,East,89,3.5,4.6,52,0.00,,,0.00,WeatherDisplay:10.37,2013-02-25 19:27:00,
2013-02-25 14:28:00,46.7,30.0,30.05,East,88,9.2,9.2,52,0.00,,,0.00,WeatherDisplay:10.37,2013-02-25 19:28:00,
2013-02-25 14:31:00,47.1,30.4,30.05,East,92,5.8,5.8,52,0.00,,,0.00,WeatherDisplay:10.37,2013-02-25 19:31:00,
2013-02-25 14:32:00,47.2,30.5,30.05,ENE,74,6.9,6.9,52,0.00,,,0.00,WeatherDisplay:10.37,2013-02-25 19:32:00,
2013-02-25 14:33:00,47.3,30.5,30.05,ENE,68,6.9,6.9,52,0.00,,,0.00,WeatherDisplay:10.37,2013-02-25 19:33:00,
2013-02-25 14:36:00,47.4,30.2,30.05,East,81,7.0,7.0,51,0.00,,,0.00,WeatherDisplay:10.37,2013-02-25 19:36:00,
2013-02-25 14:37:00,47.5,30.7,30.05,East,101,8.1,8.1,52,0.00,,,0.00,WeatherDisplay:10.37,2013-02-25 19:37:00,
2013-02-25 14:38:00,47.6,30.3,30.05,NE,56,5.8,5.8,51,0.00,,,0.00,WeatherDisplay:10.37,2013-02-25 19:38:00,
2013-02-25 14:39:00,47.7,30.0,30.05,ESE,102,5.8,5.8,50,0.00,,,0.00,WeatherDisplay:10.37,2013-02-25 19:39:00,
2013-02-25 14:41:00,47.8,30.0,30.05,East,98,4.6,4.6,50,0.00,,,0.00,WeatherDisplay:10.37,2013-02-25 19:41:00,
2013-02-25 14:42:00,47.9,30.1,30.05,ESE,113,5.8,5.8,50,0.00,,,0.00,WeatherDisplay:10.37,2013-02-25 19:42:00,
2013-02-25 14:43:00,47.9,29.6,30.05,ENE,71,6.9,6.9,49,0.00,,,0.00,WeatherDisplay:10.37,2013-02-25 19:43:00,
2013-02-25 14:45:00,47.9,29.6,30.05,NNE,28,8.1,8.1,49,0.00,,,0.00,WeatherDisplay:10.37,2013-02-25 19:45:00,
2013-02-25 14:47:00,48.1,30.3,30.05,ESE,106,6.9,6.9,50,0.00,,,0.00,WeatherDisplay:10.37,2013-02-25 19:47:00,
2013-02-25 14:48:00,48.1,29.8,30.05,North,355,5.0,5.0,49,0.00,,,0.00,WeatherDisplay:10.37,2013-02-25 19:48:00,
2013-02-25 14:50:00,48.3,30.5,30.05,ENE,58,5.0,5.0,50,0.00,,,0.00,WeatherDisplay:10.37,2013-02-25 19:50:00,
2013-02-25 14:52:00,48.5,30.7,30.04,East,82,6.9,6.9,50,0.00,,,0.00,WeatherDisplay:10.37,2013-02-25 19:52:00,
2013-02-25 14:53:00,48.5,30.2,30.04,NE,50,6.9,6.9,49,0.00,,,0.00,WeatherDisplay:10.37,2013-02-25 19:53:00,
2013-02-25 14:55:00,48.5,30.2,30.04,East,94,11.5,11.5,49,0.00,,,0.00,WeatherDisplay:10.37,2013-02-25 19:55:00,
2013-02-25 14:57:00,48.6,30.3,30.04,NE,56,8.1,8.1,49,0.00,,,0.00,WeatherDisplay:10.37,2013-02-25 19:57:00,
2013-02-25 14:58:00,48.6,29.8,30.04,ENE,78,5.8,5.8,48,0.00,,,0.00,WeatherDisplay:10.37,2013-02-25 19:58:00,
2013-02-25 15:00:00,48.7,30.4,30.04,ESE,102,6.9,6.9,49,0.00,,,0.00,WeatherDisplay:10.37,2013-02-25 20:00:00,
2013-02-25 15:02:00,48.8,30.0,30.04,NNE,30,6.9,6.9,48,0.00,,,0.00,WeatherDisplay:10.37,2013-02-25 20:02:00,
2013-02-25 15:03:00,48.9,30.1,30.04,East,81,6.9,6.9,48,0.00,,,0.00,WeatherDisplay:10.37,2013-02-25 20:03:00,
2013-02-25 15:05:00,49.1,30.7,30.04,ENE,67,6.9,6.9,49,0.00,,,0.00,WeatherDisplay:10.37,2013-02-25 20:05:00,
2013-02-25 15:07:00,49.3,30.4,30.04,ESE,122,5.8,5.8,48,0.00,,,0.00,WeatherDisplay:10.37,2013-02-25 20:07:00,
2013-02-25 15:08:00,49.3,30.4,30.04,East,84,3.5,3.5,48,0.00,,,0.00,WeatherDisplay:10.37,2013-02-25 20:08:00,
2013-02-25 15:10:00,49.4,30.0,30.04,ENE,65,7.0,7.0,47,0.00,,,0.00,WeatherDisplay:10.37,2013-02-25 20:10:00,
2013-02-25 15:12:00,49.4,30.0,30.04,ENE,71,3.5,3.5,47,0.00,,,0.00,WeatherDisplay:10.37,2013-02-25 20:12:00,
2013-02-25 15:13:00,49.4,30.0,30.04,ENE,71,3.5,3.5,47,0.00,,,0.00,WeatherDisplay:10.37,2013-02-25 20:13:00,
2013-02-25 15:15:00,49.7,30.8,30.05,East,85,4.6,4.6,48,0.00,,,0.00,WeatherDisplay:10.37,2013-02-25 20:15:00,
2013-02-25 15:18:00,50.0,30.5,30.05,NNE,32,3.5,3.5,47,0.00,,,0.00,WeatherDisplay:10.37,2013-02-25 20:18:00,
2013-02-25 15:20:00,50.0,30.5,30.05,ENE,77,6.9,6.9,47,0.00,,,0.00,WeatherDisplay:10.37,2013-02-25 20:20:00,
2013-02-25 15:23:00,50.0,30.0,30.05,NE,51,4.6,4.6,46,0.00,,,0.00,WeatherDisplay:10.37,2013-02-25 20:23:00,
2013-02-25 15:24:00,50.1,30.1,30.05,ENE,68,5.8,5.8,46,0.00,,,0.00,WeatherDisplay:10.37,2013-02-25 20:24:00,
2013-02-25 15:26:00,50.1,30.1,30.05,East,99,5.8,5.8,46,0.00,,,0.00,WeatherDisplay:10.37,2013-02-25 20:26:00,
2013-02-25 15:28:00,50.3,29.7,30.05,ENE,60,3.5,3.5,45,0.00,,,0.00,WeatherDisplay:10.37,2013-02-25 20:28:00,
2013-02-25 15:29:00,50.3,29.7,30.05,NE,56,5.0,5.0,45,0.00,,,0.00,WeatherDisplay:10.37,2013-02-25 20:29:00,
2013-02-25 15:31:00,50.4,30.9,30.05,ESE,113,5.8,5.8,47,0.00,,,0.00,WeatherDisplay:10.37,2013-02-25 20:31:00,
2013-02-25 15:34:00,50.5,29.9,30.05,ESE,104,5.0,5.0,45,0.00,,,0.00,WeatherDisplay:10.37,2013-02-25 20:34:00,
2013-02-25 15:36:00,50.7,30.7,30.05,East,91,3.5,3.5,46,0.00,,,0.00,WeatherDisplay:10.37,2013-02-25 20:36:00,
2013-02-25 15:39:00,50.8,30.2,30.05,NW,321,3.5,3.5,45,0.00,,,0.00,WeatherDisplay:10.37,2013-02-25 20:39:00,
2013-02-25 15:42:00,51.0,30.4,30.04,ESE,102,5.8,5.8,45,0.00,,,0.00,WeatherDisplay:10.37,2013-02-25 20:42:00,
2013-02-25 15:44:00,51.0,30.9,30.04,NW,323,3.5,3.5,46,0.00,,,0.00,WeatherDisplay:10.37,2013-02-25 20:44:00,
2013-02-25 15:45:00,51.1,31.0,30.04,East,87,3.5,3.5,46,0.00,,,0.00,WeatherDisplay:10.37,2013-02-25 20:45:00,
2013-02-25 15:47:00,51.4,30.7,30.04,ENE,63,3.5,3.5,45,0.00,,,0.00,WeatherDisplay:10.37,2013-02-25 20:47:00,
2013-02-25 15:49:00,51.6,31.5,30.04,East,88,4.6,4.6,46,0.00,,,0.00,WeatherDisplay:10.37,2013-02-25 20:49:00,
2013-02-25 15:50:00,51.6,30.4,30.03,East,87,5.8,5.8,44,0.00,,,0.00,WeatherDisplay:10.37,2013-02-25 20:50:00,
2013-02-25 15:52:00,51.4,30.2,30.03,ENE,63,5.8,5.8,44,0.00,,,0.00,WeatherDisplay:10.37,2013-02-25 20:52:00,
2013-02-25 15:54:00,51.4,30.2,30.03,East,88,4.6,4.6,44,0.00,,,0.00,WeatherDisplay:10.37,2013-02-25 20:54:00,
2013-02-25 15:55:00,51.3,29.5,30.03,NNE,28,4.0,4.0,43,0.00,,,0.00,WeatherDisplay:10.37,2013-02-25 20:55:00,
2013-02-25 15:56:00,51.3,30.1,30.03,East,80,5.8,5.8,44,0.00,,,0.00,WeatherDisplay:10.37,2013-02-25 20:56:00,
2013-02-25 15:57:00,51.3,31.2,30.03,East,95,5.8,5.8,46,0.00,,,0.00,WeatherDisplay:10.37,2013-02-25 20:57:00,
2013-02-25 15:59:00,51.5,31.4,30.03,East,82,4.6,4.6,46,0.00,,,0.00,WeatherDisplay:10.37,2013-02-25 20:59:00,
2013-02-25 16:00:00,51.6,30.9,30.03,ENE,67,3.5,3.5,45,0.00,,,0.00,WeatherDisplay:10.37,2013-02-25 21:00:00,
2013-02-25 16:01:00,51.7,31.0,30.03,ENE,63,5.0,5.0,45,0.00,,,0.00,WeatherDisplay:10.37,2013-02-25 21:01:00,
2013-02-25 16:02:00,51.7,30.5,30.03,NNE,28,5.8,5.8,44,0.00,,,0.00,WeatherDisplay:10.37,2013-02-25 21:02:00,
2013-02-25 16:04:00,51.6,30.4,30.03,ENE,70,4.0,4.0,44,0.00,,,0.00,WeatherDisplay:10.37,2013-02-25 21:04:00,
2013-02-25 16:05:00,51.6,30.4,30.03,East,96,4.6,4.6,44,0.00,,,0.00,WeatherDisplay:10.37,2013-02-25 21:05:00,
2013-02-25 16:07:00,51.5,30.3,30.03,ENE,58,5.8,5.8,44,0.00,,,0.00,WeatherDisplay:10.37,2013-02-25 21:07:00,
2013-02-25 16:08:00,51.4,30.2,30.03,ESE,102,3.5,3.5,44,0.00,,,0.00,WeatherDisplay:10.37,2013-02-25 21:08:00,
2013-02-25 16:10:00,51.5,30.3,30.02,ENE,71,3.5,3.5,44,0.00,,,0.00,WeatherDisplay:10.37,2013-02-25 21:10:00,
2013-02-25 16:12:00,51.6,30.9,30.02,East,98,4.0,4.0,45,0.00,,,0.00,WeatherDisplay:10.37,2013-02-25 21:12:00,
2013-02-25 16:13:00,51.6,30.9,30.02,ENE,71,4.6,4.6,45,0.00,,,0.00,WeatherDisplay:10.37,2013-02-25 21:13:00,
2013-02-25 16:15:00,51.6,30.4,30.02,North,354,3.5,3.5,44,0.00,,,0.00,WeatherDisplay:10.37,2013-02-25 21:15:00,
2013-02-25 16:17:00,51.6,30.9,30.02,ENE,68,5.8,5.8,45,0.00,,,0.00,WeatherDisplay:10.37,2013-02-25 21:17:00,
2013-02-25 16:19:00,51.6,30.9,30.02,East,82,5.0,5.0,45,0.00,,,0.00,WeatherDisplay:10.37,2013-02-25 21:19:00,
2013-02-25 16:20:00,51.6,30.9,30.02,East,83,5.8,5.8,45,0.00,,,0.00,WeatherDisplay:10.37,2013-02-25 21:20:00,
2013-02-25 16:22:00,51.7,30.5,30.02,East,98,3.5,3.5,44,0.00,,,0.00,WeatherDisplay:10.37,2013-02-25 21:22:00,
2013-02-25 16:24:00,51.8,30.6,30.02,NE,49,2.3,2.3,44,0.00,,,0.00,WeatherDisplay:10.37,2013-02-25 21:24:00,
2013-02-25 16:25:00,51.8,30.6,30.02,NE,49,3.5,3.5,44,0.00,,,0.00,WeatherDisplay:10.37,2013-02-25 21:25:00,
2013-02-25 16:27:00,51.9,30.6,30.02,SE,133,3.5,3.5,44,0.00,,,0.00,WeatherDisplay:10.37,2013-02-25 21:27:00,
2013-02-25 16:30:00,52.0,30.7,30.02,East,91,4.0,4.0,44,0.00,,,0.00,WeatherDisplay:10.37,2013-02-25 21:30:00,
2013-02-25 16:32:00,52.0,30.7,30.02,East,80,6.9,6.9,44,0.00,,,0.00,WeatherDisplay:10.37,2013-02-25 21:32:00,
2013-02-25 16:35:00,52.0,30.7,30.02,East,90,3.5,3.5,44,0.00,,,0.00,WeatherDisplay:10.37,2013-02-25 21:35:00,
2013-02-25 16:36:00,52.0,30.7,30.02,East,90,4.0,4.0,44,0.00,,,0.00,WeatherDisplay:10.37,2013-02-25 21:36:00,
2013-02-25 16:37:00,52.0,30.2,30.02,East,95,4.6,4.6,43,0.00,,,0.00,WeatherDisplay:10.37,2013-02-25 21:37:00,
2013-02-25 16:38:00,52.0,30.2,30.02,NE,56,4.0,4.0,43,0.00,,,0.00,WeatherDisplay:10.37,2013-02-25 21:38:00,
2013-02-25 16:40:00,52.0,30.7,30.02,ENE,67,4.0,4.0,44,0.00,,,0.00,WeatherDisplay:10.37,2013-02-25 21:40:00,
2013-02-25 16:41:00,52.0,31.3,30.02,ENE,75,5.8,5.8,45,0.00,,,0.00,WeatherDisplay:10.37,2013-02-25 21:41:00,
2013-02-25 16:42:00,52.0,30.7,30.02,East,89,4.6,4.6,44,0.00,,,0.00,WeatherDisplay:10.37,2013-02-25 21:42:00,
2013-02-25 16:44:00,51.9,30.6,30.02,ESE,102,4.6,4.6,44,0.00,,,0.00,WeatherDisplay:10.37,2013-02-25 21:44:00,
2013-02-25 16:45:00,51.9,30.6,30.02,SE,141,4.6,4.6,44,0.00,,,0.00,WeatherDisplay:10.37,2013-02-25 21:45:00,
2013-02-25 16:46:00,51.9,30.6,30.02,East,89,3.5,3.5,44,0.00,,,0.00,WeatherDisplay:10.37,2013-02-25 21:46:00,
2013-02-25 16:48:00,52.0,31.3,30.02,East,82,5.8,5.8,45,0.00,,,0.00,WeatherDisplay:10.37,2013-02-25 21:48:00,
2013-02-25 16:49:00,52.0,30.7,30.02,ESE,115,4.6,4.6,44,0.00,,,0.00,WeatherDisplay:10.37,2013-02-25 21:49:00,
2013-02-25 16:50:00,52.0,30.7,30.02,East,97,4.6,4.6,44,0.00,,,0.00,WeatherDisplay:10.37,2013-02-25 21:50:00,
2013-02-25 16:51:00,52.0,30.7,30.03,East,90,4.6,4.6,44,0.00,,,0.00,WeatherDisplay:10.37,2013-02-25 21:51:00,
2013-02-25 16:53:00,52.0,31.3,30.02,East,84,3.5,3.5,45,0.00,,,0.00,WeatherDisplay:10.37,2013-02-25 21:53:00,
2013-02-25 16:54:00,51.9,30.6,30.02,East,101,4.6,4.6,44,0.00,,,0.00,WeatherDisplay:10.37,2013-02-25 21:54:00,
2013-02-25 16:55:00,51.9,31.2,30.02,East,94,3.5,3.5,45,0.00,,,0.00,WeatherDisplay:10.37,2013-02-25 21:55:00,
2013-02-25 16:57:00,51.8,30.6,30.02,ENE,75,5.8,5.8,44,0.00,,,0.00,WeatherDisplay:10.37,2013-02-25 21:57:00,
2013-02-25 16:58:00,51.7,30.5,30.02,East,101,4.6,4.6,44,0.00,,,0.00,WeatherDisplay:10.37,2013-02-25 21:58:00,
2013-02-25 16:59:00,51.7,30.5,30.02,East,84,7.0,7.0,44,0.00,,,0.00,WeatherDisplay:10.37,2013-02-25 21:59:00,
2013-02-25 17:01:00,51.6,30.9,30.02,East,92,4.6,4.6,45,0.00,,,0.00,WeatherDisplay:10.37,2013-02-25 22:01:00,
2013-02-25 17:02:00,51.5,30.8,30.02,East,94,4.6,4.6,45,0.00,,,0.00,WeatherDisplay:10.37,2013-02-25 22:02:00,
2013-02-25 17:03:00,51.4,31.3,30.02,ENE,69,3.5,3.5,46,0.00,,,0.00,WeatherDisplay:10.37,2013-02-25 22:03:00,
2013-02-25 17:04:00,51.4,31.3,30.02,East,81,4.6,4.6,46,0.00,,,0.00,WeatherDisplay:10.37,2013-02-25 22:04:00,
2013-02-25 17:06:00,51.4,31.3,30.02,East,87,3.5,3.5,46,0.00,,,0.00,WeatherDisplay:10.37,2013-02-25 22:06:00,
2013-02-25 17:08:00,51.3,30.7,30.02,East,89,4.6,4.6,45,0.00,,,0.00,WeatherDisplay:10.37,2013-02-25 22:08:00,
2013-02-25 17:09:00,51.3,30.7,30.02,East,99,3.5,3.5,45,0.00,,,0.00,WeatherDisplay:10.37,2013-02-25 22:09:00,
2013-02-25 17:10:00,51.3,30.6,30.02,East,82,3.0,5.0,45,0.00,,,0.00,WeatherDisplay:10.37,2013-02-25 22:10:00,
2013-02-25 17:11:00,51.2,30.6,30.02,ENE,78,3.5,3.5,45,0.00,,,0.00,WeatherDisplay:10.37,2013-02-25 22:11:00,
2013-02-25 17:13:00,51.2,31.1,30.02,East,95,5.8,5.8,46,0.00,,,0.00,WeatherDisplay:10.37,2013-02-25 22:13:00,
2013-02-25 17:14:00,51.2,31.1,30.02,ESE,109,4.6,4.6,46,0.00,,,0.00,WeatherDisplay:10.37,2013-02-25 22:14:00,
2013-02-25 17:15:00,51.2,31.1,30.02,East,86,2.0,6.0,46,0.00,,,0.00,WeatherDisplay:10.37,2013-02-25 22:15:00,
2013-02-25 17:16:00,51.1,31.0,30.02,ESE,109,4.6,4.6,46,0.00,,,0.00,WeatherDisplay:10.37,2013-02-25 22:16:00,
2013-02-25 17:18:00,50.9,30.8,30.02,ENE,78,5.8,5.8,46,0.00,,,0.00,WeatherDisplay:10.37,2013-02-25 22:18:00,
2013-02-25 17:20:00,50.9,31.3,30.02,East,89,3.0,6.0,47,0.00,,,0.00,WeatherDisplay:10.37,2013-02-25 22:20:00,
2013-02-25 17:21:00,50.7,31.2,30.02,NE,51,5.8,5.8,47,0.00,,,0.00,WeatherDisplay:10.37,2013-02-25 22:21:00,
2013-02-25 17:24:00,50.6,31.1,30.02,East,90,3.5,3.5,47,0.00,,,0.00,WeatherDisplay:10.37,2013-02-25 22:24:00,
2013-02-25 17:25:00,50.6,31.1,30.02,East,83,1.0,6.0,47,0.00,,,0.00,WeatherDisplay:10.37,2013-02-25 22:25:00,
2013-02-25 17:26:00,50.5,31.0,30.02,East,92,3.5,3.5,47,0.00,,,0.00,WeatherDisplay:10.37,2013-02-25 22:26:00,
2013-02-25 17:29:00,50.3,30.8,30.02,East,98,4.6,4.6,47,0.00,,,0.00,WeatherDisplay:10.37,2013-02-25 22:29:00,
2013-02-25 17:30:00,50.3,30.8,30.02,ESE,106,4.6,4.6,47,0.00,,,0.00,WeatherDisplay:10.37,2013-02-25 22:30:00,
2013-02-25 17:31:00,50.2,31.2,30.02,East,101,4.6,4.6,48,0.00,,,0.00,WeatherDisplay:10.37,2013-02-25 22:31:00,
2013-02-25 17:34:00,50.1,31.2,30.02,East,94,3.5,3.5,48,0.00,,,0.00,WeatherDisplay:10.37,2013-02-25 22:34:00,
2013-02-25 17:35:00,50.0,31.1,30.02,ESE,109,2.3,2.3,48,0.00,,,0.00,WeatherDisplay:10.37,2013-02-25 22:35:00,
2013-02-25 17:36:00,50.0,31.1,30.02,SSE,153,4.0,4.0,48,0.00,,,0.00,WeatherDisplay:10.37,2013-02-25 22:36:00,
2013-02-25 17:40:00,49.9,31.0,30.02,East,96,3.5,3.5,48,0.00,,,0.00,WeatherDisplay:10.37,2013-02-25 22:40:00,
2013-02-25 17:41:00,49.9,30.5,30.02,ESE,115,3.5,3.5,47,0.00,,,0.00,WeatherDisplay:10.37,2013-02-25 22:41:00,
2013-02-25 17:45:00,49.6,30.7,30.02,East,79,3.5,3.5,48,0.00,,,0.00,WeatherDisplay:10.37,2013-02-25 22:45:00,
2013-02-25 17:46:00,49.6,30.7,30.02,East,84,3.5,3.5,48,0.00,,,0.00,WeatherDisplay:10.37,2013-02-25 22:46:00,
2013-02-25 17:47:00,49.5,30.6,30.02,ENE,78,3.5,3.5,48,0.00,,,0.00,WeatherDisplay:10.37,2013-02-25 22:47:00,
2013-02-25 17:50:00,49.3,30.4,30.02,East,92,3.5,3.5,48,0.00,,,0.00,WeatherDisplay:10.37,2013-02-25 22:50:00,
2013-02-25 17:51:00,49.2,30.3,30.02,East,88,3.5,3.5,48,0.00,,,0.00,WeatherDisplay:10.37,2013-02-25 22:51:00,
2013-02-25 17:52:00,49.2,30.3,30.02,ESE,106,3.5,3.5,48,0.00,,,0.00,WeatherDisplay:10.37,2013-02-25 22:52:00,
2013-02-25 17:55:00,49.0,30.1,30.02,SE,133,3.5,3.5,48,0.00,,,0.00,WeatherDisplay:10.37,2013-02-25 22:55:00,
2013-02-25 17:56:00,48.9,30.6,30.02,ESE,122,3.5,3.5,49,0.00,,,0.00,WeatherDisplay:10.37,2013-02-25 22:56:00,
2013-02-25 17:57:00,48.9,30.1,30.02,East,92,4.6,4.6,48,0.00,,,0.00,WeatherDisplay:10.37,2013-02-25 22:57:00,
2013-02-25 18:00:00,48.6,30.3,30.02,East,101,3.5,3.5,49,0.00,,,0.00,WeatherDisplay:10.37,2013-02-25 23:00:00,
2013-02-25 18:01:00,48.5,30.2,30.02,East,87,3.5,3.5,49,0.00,,,0.00,WeatherDisplay:10.37,2013-02-25 23:01:00,
2013-02-25 18:02:00,48.4,30.1,30.02,ENE,77,2.3,2.3,49,0.00,,,0.00,WeatherDisplay:10.37,2013-02-25 23:02:00,
2013-02-25 18:05:00,47.9,30.1,30.02,ESE,109,2.3,2.3,50,0.00,,,0.00,WeatherDisplay:10.37,2013-02-25 23:05:00,
2013-02-25 18:06:00,47.8,30.0,30.02,ESE,108,3.5,3.5,50,0.00,,,0.00,WeatherDisplay:10.37,2013-02-25 23:06:00,
2013-02-25 18:07:00,47.7,30.0,30.02,SE,129,3.5,3.5,50,0.00,,,0.00,WeatherDisplay:10.37,2013-02-25 23:07:00,
2013-02-25 18:08:00,47.6,29.9,30.02,ESE,109,3.5,3.5,50,0.00,,,0.00,WeatherDisplay:10.37,2013-02-25 23:08:00,
2013-02-25 18:11:00,46.9,29.7,30.02,East,88,3.5,3.5,51,0.00,,,0.00,WeatherDisplay:10.37,2013-02-25 23:11:00,
2013-02-25 18:12:00,46.8,30.1,30.02,ENE,76,3.5,3.5,52,0.00,,,0.00,WeatherDisplay:10.37,2013-02-25 23:12:00,
2013-02-25 18:13:00,46.7,30.0,30.02,SE,125,3.5,3.5,52,0.00,,,0.00,WeatherDisplay:10.37,2013-02-25 23:13:00,
2013-02-25 18:16:00,46.1,29.9,30.02,ENE,74,3.5,3.5,53,0.00,,,0.00,WeatherDisplay:10.37,2013-02-25 23:16:00,
2013-02-25 18:17:00,46.0,29.8,30.01,ESE,103,3.5,3.5,53,0.00,,,0.00,WeatherDisplay:10.37,2013-02-25 23:17:00,
2013-02-25 18:18:00,45.8,29.6,30.01,ESE,113,6.0,6.0,53,0.00,,,0.00,WeatherDisplay:10.37,2013-02-25 23:18:00,
2013-02-25 18:22:00,45.4,29.7,30.01,East,84,4.6,4.6,54,0.00,,,0.00,WeatherDisplay:10.37,2013-02-25 23:22:00,
2013-02-25 18:23:00,45.2,29.5,30.01,East,89,3.5,3.5,54,0.00,,,0.00,WeatherDisplay:10.37,2013-02-25 23:23:00,
2013-02-25 18:27:00,44.6,29.4,30.01,East,80,3.5,3.5,55,0.00,,,0.00,WeatherDisplay:10.37,2013-02-25 23:27:00,
2013-02-25 18:29:00,44.3,29.1,30.01,East,101,2.3,2.3,55,0.00,,,0.00,WeatherDisplay:10.37,2013-02-25 23:29:00,
2013-02-25 18:32:00,43.8,29.5,30.01,East,84,3.5,3.5,57,0.00,,,0.00,WeatherDisplay:10.37,2013-02-25 23:32:00,
2013-02-25 18:34:00,43.5,29.3,30.01,ESE,108,3.5,3.5,57,0.00,,,0.00,WeatherDisplay:10.37,2013-02-25 23:34:00,
2013-02-25 18:37:00,43.3,29.1,30.01,SE,134,3.5,3.5,57,0.00,,,0.00,WeatherDisplay:10.37,2013-02-25 23:37:00,
2013-02-25 18:39:00,43.2,29.0,30.01,ESE,103,2.3,2.3,57,0.00,,,0.00,WeatherDisplay:10.37,2013-02-25 23:39:00,
2013-02-25 18:40:00,43.1,29.3,30.01,East,95,2.3,2.3,58,0.00,,,0.00,WeatherDisplay:10.37,2013-02-25 23:40:00,
2013-02-25 18:42:00,42.8,29.0,30.01,East,92,3.0,3.0,58,0.00,,,0.00,WeatherDisplay:10.37,2013-02-25 23:42:00,
2013-02-25 18:44:00,42.6,29.3,30.01,ESE,109,4.0,4.0,59,0.00,,,0.00,WeatherDisplay:10.37,2013-02-25 23:44:00,
2013-02-25 18:45:00,42.5,29.2,30.01,East,91,4.6,4.6,59,0.00,,,0.00,WeatherDisplay:10.37,2013-02-25 23:45:00,
2013-02-25 18:47:00,42.5,29.2,30.01,East,96,3.5,3.5,59,0.00,,,0.00,WeatherDisplay:10.37,2013-02-25 23:47:00,
2013-02-25 18:49:00,42.7,29.4,30.02,East,89,4.6,4.6,59,0.00,,,0.00,WeatherDisplay:10.37,2013-02-25 23:49:00,
2013-02-25 18:50:00,42.7,29.4,30.02,East,87,6.0,6.0,59,0.00,,,0.00,WeatherDisplay:10.37,2013-02-25 23:50:00,
2013-02-25 18:52:00,42.7,29.4,30.02,East,89,4.0,4.0,59,0.00,,,0.00,WeatherDisplay:10.37,2013-02-25 23:52:00,
2013-02-25 18:54:00,42.7,29.4,30.02,East,99,3.5,3.5,59,0.00,,,0.00,WeatherDisplay:10.37,2013-02-25 23:54:00,
2013-02-25 18:55:00,42.7,29.4,30.02,East,93,3.5,3.5,59,0.00,,,0.00,WeatherDisplay:10.37,2013-02-25 23:55:00,
2013-02-25 18:57:00,42.5,29.2,30.02,East,83,7.0,7.0,59,0.00,,,0.00,WeatherDisplay:10.37,2013-02-25 23:57:00,
2013-02-25 18:59:00,42.5,29.2,30.02,ESE,105,4.6,4.6,59,0.00,,,0.00,WeatherDisplay:10.37,2013-02-25 23:59:00,
2013-02-25 19:00:00,42.5,29.2,30.02,East,95,3.0,7.0,59,0.00,,,0.00,WeatherDisplay:10.37,2013-02-26 00:00:00,
2013-02-25 19:02:00,42.5,29.2,30.02,ESE,105,4.6,4.6,59,0.00,,,0.00,WeatherDisplay:10.37,2013-02-26 00:02:00,
2013-02-25 19:04:00,42.5,29.2,30.02,East,89,6.9,6.9,59,0.00,,,0.00,WeatherDisplay:10.37,2013-02-26 00:04:00,
2013-02-25 19:05:00,42.5,29.2,30.02,East,91,4.6,4.6,59,0.00,,,0.00,WeatherDisplay:10.37,2013-02-26 00:05:00,
2013-02-25 19:08:00,42.3,29.0,30.01,East,84,6.9,6.9,59,0.00,,,0.00,WeatherDisplay:10.37,2013-02-26 00:08:00,
2013-02-25 19:10:00,42.2,28.9,30.01,East,92,4.6,4.6,59,0.00,,,0.00,WeatherDisplay:10.37,2013-02-26 00:10:00,
2013-02-25 19:11:00,42.2,28.9,30.02,ESE,106,4.6,4.6,59,0.00,,,0.00,WeatherDisplay:10.37,2013-02-26 00:11:00,
2013-02-25 19:13:00,42.2,28.9,30.01,East,88,4.6,4.6,59,0.00,,,0.00,WeatherDisplay:10.37,2013-02-26 00:13:00,
2013-02-25 19:15:00,42.1,28.8,30.01,East,92,6.9,6.9,59,0.00,,,0.00,WeatherDisplay:10.37,2013-02-26 00:15:00,
2013-02-25 19:16:00,42.0,28.7,30.01,East,81,6.9,6.9,59,0.00,,,0.00,WeatherDisplay:10.37,2013-02-26 00:16:00,
2013-02-25 19:18:00,41.9,29.0,30.01,East,93,5.8,5.8,60,0.00,,,0.00,WeatherDisplay:10.37,2013-02-26 00:18:00,
2013-02-25 19:20:00,41.8,28.9,30.01,East,99,5.8,5.8,60,0.00,,,0.00,WeatherDisplay:10.37,2013-02-26 00:20:00,
2013-02-25 19:21:00,41.7,28.8,30.01,ESE,104,9.0,9.0,60,0.00,,,0.00,WeatherDisplay:10.37,2013-02-26 00:21:00,
2013-02-25 19:23:00,41.7,28.8,30.01,SE,130,4.6,4.7,60,0.00,,,0.00,WeatherDisplay:10.37,2013-02-26 00:23:00,
2013-02-25 19:25:00,41.6,28.7,30.01,East,83,9.2,9.2,60,0.00,,,0.00,WeatherDisplay:10.37,2013-02-26 00:25:00,
2013-02-25 19:26:00,41.6,28.7,30.01,ENE,73,9.2,9.2,60,0.00,,,0.00,WeatherDisplay:10.37,2013-02-26 00:26:00,
2013-02-25 19:27:00,41.6,28.7,30.01,East,81,8.1,8.1,60,0.00,,,0.00,WeatherDisplay:10.37,2013-02-26 00:27:00,
2013-02-25 19:29:00,41.4,28.5,30.02,East,89,9.2,9.2,60,0.00,,,0.00,WeatherDisplay:10.37,2013-02-26 00:29:00,
2013-02-25 19:31:00,41.4,28.5,30.02,ESE,113,10.4,10.4,60,0.00,,,0.00,WeatherDisplay:10.37,2013-02-26 00:31:00,
2013-02-25 19:32:00,41.3,28.9,30.02,East,96,6.0,6.0,61,0.00,,,0.00,WeatherDisplay:10.37,2013-02-26 00:32:00,
2013-02-25 19:34:00,41.2,28.4,30.02,East,98,8.1,8.1,60,0.00,,,0.00,WeatherDisplay:10.37,2013-02-26 00:34:00,
2013-02-25 19:36:00,41.1,28.7,30.02,ENE,77,6.9,6.9,61,0.00,,,0.00,WeatherDisplay:10.37,2013-02-26 00:36:00,
2013-02-25 19:37:00,41.0,28.6,30.02,East,90,5.8,5.8,61,0.00,,,0.00,WeatherDisplay:10.37,2013-02-26 00:37:00,
2013-02-25 19:39:00,40.9,28.5,30.01,East,99,8.1,8.1,61,0.00,,,0.00,WeatherDisplay:10.37,2013-02-26 00:39:00,
2013-02-25 19:41:00,40.8,28.4,30.01,East,85,8.0,8.0,61,0.00,,,0.00,WeatherDisplay:10.37,2013-02-26 00:41:00,
2013-02-25 19:44:00,40.7,28.3,30.01,East,93,8.1,8.1,61,0.00,,,0.00,WeatherDisplay:10.37,2013-02-26 00:44:00,
2013-02-25 19:46:00,40.6,28.2,30.01,East,91,8.1,8.1,61,0.00,,,0.00,WeatherDisplay:10.37,2013-02-26 00:46:00,
2013-02-25 19:49:00,40.4,28.0,30.01,East,82,8.1,8.1,61,0.00,,,0.00,WeatherDisplay:10.37,2013-02-26 00:49:00,
2013-02-25 19:50:00,40.4,28.4,30.01,East,91,8.1,8.1,62,0.00,,,0.00,WeatherDisplay:10.37,2013-02-26 00:50:00,
2013-02-25 19:51:00,40.3,28.3,30.01,SE,129,9.2,9.2,62,0.00,,,0.00,WeatherDisplay:10.37,2013-02-26 00:51:00,
2013-02-25 19:54:00,40.1,28.1,30.02,ESE,102,9.2,9.2,62,0.00,,,0.00,WeatherDisplay:10.37,2013-02-26 00:54:00,
2013-02-25 19:55:00,40.1,28.1,30.02,SE,125,6.9,6.9,62,0.00,,,0.00,WeatherDisplay:10.37,2013-02-26 00:55:00,
2013-02-25 19:56:00,40.1,28.1,30.02,ENE,71,5.8,5.8,62,0.00,,,0.00,WeatherDisplay:10.37,2013-02-26 00:56:00,
2013-02-25 19:59:00,39.9,27.9,30.02,East,84,5.8,5.8,62,0.00,,,0.00,WeatherDisplay:10.37,2013-02-26 00:59:00,
2013-02-25 20:01:00,39.8,28.2,30.02,ESE,103,5.8,5.8,63,0.00,,,0.00,WeatherDisplay:10.37,2013-02-26 01:01:00,
2013-02-25 20:02:00,39.8,27.8,30.02,East,89,8.0,8.0,62,0.00,,,0.00,WeatherDisplay:10.37,2013-02-26 01:02:00,
2013-02-25 20:05:00,39.8,27.8,30.02,East,97,5.0,9.0,62,0.00,,,0.00,WeatherDisplay:10.37,2013-02-26 01:05:00,
2013-02-25 20:06:00,39.9,27.5,30.02,East,81,11.5,11.5,61,0.00,,,0.00,WeatherDisplay:10.37,2013-02-26 01:06:00,
2013-02-25 20:07:00,39.9,27.5,30.02,ENE,75,11.5,11.5,61,0.00,,,0.00,WeatherDisplay:10.37,2013-02-26 01:07:00,
2013-02-25 20:10:00,39.8,27.9,30.02,East,96,5.0,12.0,62,0.00,,,0.00,WeatherDisplay:10.37,2013-02-26 01:10:00,
2013-02-25 20:12:00,39.7,27.7,30.02,ENE,70,9.2,9.2,62,0.00,,,0.00,WeatherDisplay:10.37,2013-02-26 01:12:00,
2013-02-25 20:13:00,39.7,27.7,30.02,East,99,9.2,9.2,62,0.00,,,0.00,WeatherDisplay:10.37,2013-02-26 01:13:00,
2013-02-25 20:15:00,39.6,27.6,30.02,East,95,7.0,7.0,62,0.00,,,0.00,WeatherDisplay:10.37,2013-02-26 01:15:00,
2013-02-25 20:17:00,39.5,27.5,30.01,East,84,8.1,8.1,62,0.00,,,0.00,WeatherDisplay:10.37,2013-02-26 01:17:00,
2013-02-25 20:18:00,39.4,27.8,30.01,East,98,6.9,6.9,63,0.00,,,0.00,WeatherDisplay:10.37,2013-02-26 01:18:00,
2013-02-25 20:20:00,39.3,27.7,30.01,East,84,6.9,6.9,63,0.00,,,0.00,WeatherDisplay:10.37,2013-02-26 01:20:00,
2013-02-25 20:22:00,39.1,27.6,30.02,East,101,8.1,8.1,63,0.00,,,0.00,WeatherDisplay:10.37,2013-02-26 01:22:00,
2013-02-25 20:23:00,39.1,27.6,30.01,ESE,103,10.4,10.4,63,0.00,,,0.00,WeatherDisplay:10.37,2013-02-26 01:23:00,
2013-02-25 20:25:00,39.0,27.5,30.01,East,88,10.4,10.4,63,0.00,,,0.00,WeatherDisplay:10.37,2013-02-26 01:25:00,
2013-02-25 20:27:00,38.9,27.4,30.01,East,82,10.4,10.4,63,0.00,,,0.00,WeatherDisplay:10.37,2013-02-26 01:27:00,
2013-02-25 20:28:00,38.9,27.4,30.01,East,101,10.4,10.4,63,0.00,,,0.00,WeatherDisplay:10.37,2013-02-26 01:28:00,
2013-02-25 20:31:00,38.8,27.3,30.01,ENE,78,8.1,8.1,63,0.00,,,0.00,WeatherDisplay:10.37,2013-02-26 01:31:00,
2013-02-25 20:33:00,38.7,27.2,30.01,East,98,11.5,11.5,63,0.00,,,0.00,WeatherDisplay:10.37,2013-02-26 01:33:00,
2013-02-25 20:34:00,38.6,27.1,30.01,ESE,106,11.5,11.5,63,0.00,,,0.00,WeatherDisplay:10.37,2013-02-26 01:34:00,
2013-02-25 20:36:00,38.6,27.5,30.01,ESE,108,9.2,9.2,64,0.00,,,0.00,WeatherDisplay:10.37,2013-02-26 01:36:00,
2013-02-25 20:38:00,38.5,27.4,30.02,East,98,8.1,8.1,64,0.00,,,0.00,WeatherDisplay:10.37,2013-02-26 01:38:00,
2013-02-25 20:39:00,38.5,27.4,30.02,East,96,8.1,8.1,64,0.00,,,0.00,WeatherDisplay:10.37,2013-02-26 01:39:00,
2013-02-25 20:41:00,38.4,27.3,30.02,ENE,65,8.1,8.1,64,0.00,,,0.00,WeatherDisplay:10.37,2013-02-26 01:41:00,
2013-02-25 20:43:00,38.4,27.3,30.02,East,80,9.2,9.2,64,0.00,,,0.00,WeatherDisplay:10.37,2013-02-26 01:43:00,
2013-02-25 20:44:00,38.3,27.2,30.02,ESE,111,8.1,8.1,64,0.00,,,0.00,WeatherDisplay:10.37,2013-02-26 01:44:00,
2013-02-25 20:45:00,38.3,27.2,30.02,East,94,8.1,8.1,64,0.00,,,0.00,WeatherDisplay:10.37,2013-02-26 01:45:00,
2013-02-25 20:46:00,38.2,27.1,30.02,East,95,6.9,6.9,64,0.00,,,0.00,WeatherDisplay:10.37,2013-02-26 01:46:00,
2013-02-25 20:48:00,38.1,27.4,30.02,East,98,8.1,8.1,65,0.00,,,0.00,WeatherDisplay:10.37,2013-02-26 01:48:00,
2013-02-25 20:49:00,38.1,27.4,30.02,East,84,8.1,8.1,65,0.00,,,0.00,WeatherDisplay:10.37,2013-02-26 01:49:00,
2013-02-25 20:50:00,38.1,27.4,30.01,East,92,6.0,6.0,65,0.00,,,0.00,WeatherDisplay:10.37,2013-02-26 01:50:00,
2013-02-25 20:51:00,38.0,27.3,30.01,East,101,6.9,6.9,65,0.00,,,0.00,WeatherDisplay:10.37,2013-02-26 01:51:00,
2013-02-25 20:54:00,38.0,27.3,30.01,East,94,8.1,8.1,65,0.00,,,0.00,WeatherDisplay:10.37,2013-02-26 01:54:00,
2013-02-25 20:55:00,37.9,27.2,30.02,East,88,5.8,5.8,65,0.00,,,0.00,WeatherDisplay:10.37,2013-02-26 01:55:00,
2013-02-25 20:56:00,37.9,27.2,30.02,East,92,6.9,6.9,65,0.00,,,0.00,WeatherDisplay:10.37,2013-02-26 01:56:00,
2013-02-25 20:59:00,37.8,27.1,30.02,East,84,7.0,7.0,65,0.00,,,0.00,WeatherDisplay:10.37,2013-02-26 01:59:00,
2013-02-25 21:01:00,37.7,27.4,30.02,East,92,5.8,5.8,66,0.00,,,0.00,WeatherDisplay:10.37,2013-02-26 02:01:00,
2013-02-25 21:04:00,37.5,27.2,30.03,East,88,8.1,8.1,66,0.00,,,0.00,WeatherDisplay:10.37,2013-02-26 02:04:00,
2013-02-25 21:06:00,37.4,27.1,30.02,East,85,4.6,4.6,66,0.00,,,0.00,WeatherDisplay:10.37,2013-02-26 02:06:00,
2013-02-25 21:10:00,37.4,27.1,30.02,East,88,5.0,8.0,66,0.00,,,0.00,WeatherDisplay:10.37,2013-02-26 02:10:00,
2013-02-25 21:11:00,37.4,27.1,30.02,East,85,8.1,8.1,66,0.00,,,0.00,WeatherDisplay:10.37,2013-02-26 02:11:00,
2013-02-25 21:12:00,37.4,27.1,30.02,East,98,9.2,9.2,66,0.00,,,0.00,WeatherDisplay:10.37,2013-02-26 02:12:00,
2013-02-25 21:15:00,37.4,27.1,30.01,East,82,9.2,9.2,66,0.00,,,0.00,WeatherDisplay:10.37,2013-02-26 02:15:00,
2013-02-25 21:16:00,37.5,27.2,30.02,East,87,11.5,11.5,66,0.00,,,0.00,WeatherDisplay:10.37,2013-02-26 02:16:00,
2013-02-25 21:17:00,37.5,27.2,30.02,East,91,7.0,7.0,66,0.00,,,0.00,WeatherDisplay:10.37,2013-02-26 02:17:00,
2013-02-25 21:20:00,37.5,26.8,30.01,East,101,8.1,8.1,65,0.00,,,0.00,WeatherDisplay:10.37,2013-02-26 02:20:00,
2013-02-25 21:22:00,37.3,27.0,30.01,East,95,8.1,8.1,66,0.00,,,0.00,WeatherDisplay:10.37,2013-02-26 02:22:00,
2013-02-25 21:23:00,37.4,27.1,30.01,East,82,8.1,8.1,66,0.00,,,0.00,WeatherDisplay:10.37,2013-02-26 02:23:00,
2013-02-25 21:25:00,37.4,27.1,30.02,East,83,10.0,10.0,66,0.00,,,0.00,WeatherDisplay:10.37,2013-02-26 02:25:00,
2013-02-25 21:27:00,37.4,26.7,30.02,ESE,112,11.5,11.5,65,0.00,,,0.00,WeatherDisplay:10.37,2013-02-26 02:27:00,
2013-02-25 21:28:00,37.4,26.7,30.02,East,83,9.2,9.2,65,0.00,,,0.00,WeatherDisplay:10.37,2013-02-26 02:28:00,
2013-02-25 21:30:00,37.4,27.1,30.03,East,88,8.1,8.1,66,0.00,,,0.00,WeatherDisplay:10.37,2013-02-26 02:30:00,
2013-02-25 21:32:00,37.3,27.0,30.03,SE,127,11.0,11.0,66,0.00,,,0.00,WeatherDisplay:10.37,2013-02-26 02:32:00,
2013-02-25 21:33:00,37.3,27.0,30.03,East,90,11.5,11.5,66,0.00,,,0.00,WeatherDisplay:10.37,2013-02-26 02:33:00,
2013-02-25 21:36:00,37.3,27.0,30.03,ENE,75,11.5,11.5,66,0.00,,,0.00,WeatherDisplay:10.37,2013-02-26 02:36:00,
2013-02-25 21:38:00,37.2,26.9,30.03,East,83,12.7,12.7,66,0.00,,,0.00,WeatherDisplay:10.37,2013-02-26 02:38:00,
2013-02-25 21:39:00,37.2,26.9,30.03,ESE,119,8.1,8.1,66,0.00,,,0.00,WeatherDisplay:10.37,2013-02-26 02:39:00,
2013-02-25 21:41:00,37.2,26.9,30.03,East,89,6.9,6.9,66,0.00,,,0.00,WeatherDisplay:10.37,2013-02-26 02:41:00,
2013-02-25 21:43:00,37.3,27.0,30.02,East,101,6.9,6.9,66,0.00,,,0.00,WeatherDisplay:10.37,2013-02-26 02:43:00,
2013-02-25 21:44:00,37.3,27.0,30.02,East,101,8.1,8.1,66,0.00,,,0.00,WeatherDisplay:10.37,2013-02-26 02:44:00,
2013-02-25 21:46:00,37.2,26.9,30.02,ENE,75,10.4,10.4,66,0.00,,,0.00,WeatherDisplay:10.37,2013-02-26 02:46:00,
2013-02-25 21:48:00,37.1,27.2,30.02,East,81,11.5,11.5,67,0.00,,,0.00,WeatherDisplay:10.37,2013-02-26 02:48:00,
2013-02-25 21:49:00,37.1,27.2,30.02,East,98,10.4,10.4,67,0.00,,,0.00,WeatherDisplay:10.37,2013-02-26 02:49:00,
2013-02-25 21:51:00,37.1,27.2,30.02,East,88,6.9,6.9,67,0.00,,,0.00,WeatherDisplay:10.37,2013-02-26 02:51:00,
2013-02-25 21:53:00,37.0,27.1,30.02,East,89,9.2,9.2,67,0.00,,,0.00,WeatherDisplay:10.37,2013-02-26 02:53:00,
2013-02-25 21:54:00,37.0,27.1,30.02,East,79,8.1,8.1,67,0.00,,,0.00,WeatherDisplay:10.37,2013-02-26 02:54:00,
2013-02-25 21:56:00,37.0,27.4,30.02,East,92,8.1,8.1,68,0.00,,,0.00,WeatherDisplay:10.37,2013-02-26 02:56:00,
2013-02-25 21:58:00,37.0,27.4,30.03,East,82,9.2,9.2,68,0.00,,,0.00,WeatherDisplay:10.37,2013-02-26 02:58:00,
2013-02-25 21:59:00,37.1,27.5,30.03,East,85,8.1,8.1,68,0.00,,,0.00,WeatherDisplay:10.37,2013-02-26 02:59:00,
2013-02-25 22:02:00,37.2,27.2,30.03,East,92,11.5,11.5,67,0.00,,,0.00,WeatherDisplay:10.37,2013-02-26 03:02:00,
2013-02-25 22:03:00,37.2,27.2,30.03,ENE,74,9.2,9.2,67,0.00,,,0.00,WeatherDisplay:10.37,2013-02-26 03:03:00,
2013-02-25 22:04:00,37.2,27.2,30.03,ESE,118,9.2,9.2,67,0.00,,,0.00,WeatherDisplay:10.37,2013-02-26 03:04:00,
2013-02-25 22:07:00,37.2,27.2,30.03,SE,125,9.2,9.2,67,0.00,,,0.00,WeatherDisplay:10.37,2013-02-26 03:07:00,
2013-02-25 22:08:00,37.2,27.2,30.03,SE,136,10.4,10.4,67,0.00,,,0.00,WeatherDisplay:10.37,2013-02-26 03:08:00,
2013-02-25 22:09:00,37.2,27.2,30.03,ESE,108,8.1,8.1,67,0.00,,,0.00,WeatherDisplay:10.37,2013-02-26 03:09:00,
2013-02-25 22:12:00,37.3,27.3,30.03,East,94,10.4,10.4,67,0.00,,,0.00,WeatherDisplay:10.37,2013-02-26 03:12:00,
2013-02-25 22:13:00,37.3,27.3,30.03,East,94,8.1,8.1,67,0.00,,,0.00,WeatherDisplay:10.37,2013-02-26 03:13:00,
2013-02-25 22:14:00,37.4,27.4,30.03,East,96,6.9,6.9,67,0.00,,,0.00,WeatherDisplay:10.37,2013-02-26 03:14:00,
2013-02-25 22:15:00,37.4,27.4,30.03,ESE,118,6.9,6.9,67,0.00,,,0.00,WeatherDisplay:10.37,2013-02-26 03:15:00,
2013-02-25 22:17:00,37.5,27.5,30.03,ESE,109,10.4,10.4,67,0.00,,,0.00,WeatherDisplay:10.37,2013-02-26 03:17:00,
2013-02-25 22:18:00,37.5,27.5,30.03,NE,51,9.2,9.2,67,0.00,,,0.00,WeatherDisplay:10.37,2013-02-26 03:18:00,
2013-02-25 22:20:00,37.5,27.5,30.03,East,92,5.0,12.0,67,0.00,,,0.00,WeatherDisplay:10.37,2013-02-26 03:20:00,
2013-02-25 22:22:00,37.5,27.5,30.03,East,80,8.1,8.1,67,0.00,,,0.00,WeatherDisplay:10.37,2013-02-26 03:22:00,
2013-02-25 22:23:00,37.5,27.5,30.03,East,80,9.2,9.2,67,0.00,,,0.00,WeatherDisplay:10.37,2013-02-26 03:23:00,
2013-02-25 22:25:00,37.5,27.5,30.03,East,89,5.8,5.8,67,0.00,,,0.00,WeatherDisplay:10.37,2013-02-26 03:25:00,
2013-02-25 22:27:00,37.5,27.5,30.02,East,96,9.2,9.2,67,0.00,,,0.00,WeatherDisplay:10.37,2013-02-26 03:27:00,
2013-02-25 22:28:00,37.5,27.5,30.03,NE,39,8.1,8.1,67,0.00,,,0.00,WeatherDisplay:10.37,2013-02-26 03:28:00,
2013-02-25 22:30:00,37.6,27.6,30.02,ENE,59,6.9,6.9,67,0.00,,,0.00,WeatherDisplay:10.37,2013-02-26 03:30:00,
2013-02-25 22:33:00,37.7,27.7,30.02,NE,47,10.4,10.4,67,0.00,,,0.00,WeatherDisplay:10.37,2013-02-26 03:33:00,
2013-02-25 22:34:00,37.7,27.7,30.03,ESE,112,10.4,10.4,67,0.00,,,0.00,WeatherDisplay:10.37,2013-02-26 03:34:00,
2013-02-25 22:35:00,37.7,27.7,30.02,East,94,10.4,10.4,67,0.00,,,0.00,WeatherDisplay:10.37,2013-02-26 03:35:00,
2013-02-25 22:36:00,37.7,27.7,30.02,East,92,10.4,10.4,67,0.00,,,0.00,WeatherDisplay:10.37,2013-02-26 03:36:00,
2013-02-25 22:38:00,37.7,27.7,30.02,East,88,9.2,9.2,67,0.00,,,0.00,WeatherDisplay:10.37,2013-02-26 03:38:00,
2013-02-25 22:39:00,37.7,27.7,30.02,ENE,63,10.4,10.4,67,0.00,,,0.00,WeatherDisplay:10.37,2013-02-26 03:39:00,
2013-02-25 22:40:00,37.7,27.7,30.02,NE,37,11.5,11.5,67,0.00,,,0.00,WeatherDisplay:10.37,2013-02-26 03:40:00,
2013-02-25 22:41:00,37.7,27.7,30.02,East,99,11.5,11.5,67,0.00,,,0.00,WeatherDisplay:10.37,2013-02-26 03:41:00,
2013-02-25 22:43:00,37.7,27.7,30.02,East,96,9.2,9.2,67,0.00,,,0.00,WeatherDisplay:10.37,2013-02-26 03:43:00,
2013-02-25 22:44:00,37.7,27.7,30.02,East,96,11.5,11.5,67,0.00,,,0.00,WeatherDisplay:10.37,2013-02-26 03:44:00,
2013-02-25 22:46:00,37.8,27.8,30.02,ESE,103,11.5,11.5,67,0.00,,,0.00,WeatherDisplay:10.37,2013-02-26 03:46:00,
2013-02-25 22:49:00,37.9,28.3,30.02,East,91,10.4,10.4,68,0.00,,,0.00,WeatherDisplay:10.37,2013-02-26 03:49:00,
2013-02-25 22:50:00,38.0,28.4,30.02,ESE,123,6.9,6.9,68,0.00,,,0.00,WeatherDisplay:10.37,2013-02-26 03:50:00,
2013-02-25 22:51:00,38.1,28.5,30.02,ENE,77,5.8,5.8,68,0.00,,,0.00,WeatherDisplay:10.37,2013-02-26 03:51:00,
2013-02-25 22:54:00,38.3,28.3,30.02,East,79,9.0,9.0,67,0.00,,,0.00,WeatherDisplay:10.37,2013-02-26 03:54:00,
2013-02-25 22:55:00,38.4,28.4,30.02,East,94,11.5,11.5,67,0.00,,,0.00,WeatherDisplay:10.37,2013-02-26 03:55:00,
2013-02-25 22:56:00,38.5,28.5,30.02,ENE,73,8.0,8.0,67,0.00,,,0.00,WeatherDisplay:10.37,2013-02-26 03:56:00,
2013-02-25 22:59:00,38.6,28.6,30.02,ENE,78,8.1,8.1,67,0.00,,,0.00,WeatherDisplay:10.37,2013-02-26 03:59:00,
2013-02-25 23:00:00,38.6,28.6,30.02,East,96,15.0,15.0,67,0.00,,,0.00,WeatherDisplay:10.37,2013-02-26 04:00:00,
2013-02-25 23:01:00,38.6,28.2,30.02,SE,141,15.0,15.0,66,0.00,,,0.00,WeatherDisplay:10.37,2013-02-26 04:01:00,
2013-02-25 23:02:00,38.5,28.1,30.01,SSE,148,11.5,11.5,66,0.00,,,0.00,WeatherDisplay:10.37,2013-02-26 04:02:00,
2013-02-25 23:04:00,38.4,28.0,30.02,ENE,68,10.4,10.4,66,0.00,,,0.00,WeatherDisplay:10.37,2013-02-26 04:04:00,
2013-02-25 23:06:00,38.4,28.0,30.01,East,86,10.4,10.4,66,0.00,,,0.00,WeatherDisplay:10.37,2013-02-26 04:06:00,
2013-02-25 23:08:00,38.4,28.0,30.01,ESE,103,11.5,11.5,66,0.00,,,0.00,WeatherDisplay:10.37,2013-02-26 04:08:00,
2013-02-25 23:09:00,38.2,27.8,30.01,East,89,9.2,9.2,66,0.00,,,0.00,WeatherDisplay:10.37,2013-02-26 04:09:00,
2013-02-25 23:11:00,38.1,28.1,30.01,ENE,77,9.2,9.2,67,0.00,,,0.00,WeatherDisplay:10.37,2013-02-26 04:11:00,
2013-02-25 23:13:00,38.0,28.0,30.01,ESE,102,8.1,8.1,67,0.00,,,0.00,WeatherDisplay:10.37,2013-02-26 04:13:00,
2013-02-25 23:15:00,37.9,27.9,30.01,ESE,118,10.4,10.4,67,0.00,,,0.00,WeatherDisplay:10.37,2013-02-26 04:15:00,
2013-02-25 23:16:00,37.9,27.5,30.02,ESE,110,9.2,9.2,66,0.00,,,0.00,WeatherDisplay:10.37,2013-02-26 04:16:00,
2013-02-25 23:17:00,37.9,27.5,30.02,East,98,5.8,5.8,66,0.00,,,0.00,WeatherDisplay:10.37,2013-02-26 04:17:00,
2013-02-25 23:18:00,37.8,27.5,30.01,East,87,6.0,6.0,66,0.00,,,0.00,WeatherDisplay:10.37,2013-02-26 04:18:00,
2013-02-25 23:20:00,37.7,27.4,30.01,East,85,9.2,9.2,66,0.00,,,0.00,WeatherDisplay:10.37,2013-02-26 04:20:00,
2013-02-25 23:22:00,37.6,27.6,30.01,East,81,8.1,8.1,67,0.00,,,0.00,WeatherDisplay:10.37,2013-02-26 04:22:00,
2013-02-25 23:23:00,37.6,27.3,30.01,SE,137,10.4,10.4,66,0.00,,,0.00,WeatherDisplay:10.37,2013-02-26 04:23:00,
2013-02-25 23:25:00,37.5,27.5,30.01,SE,132,5.0,5.0,67,0.00,,,0.00,WeatherDisplay:10.37,2013-02-26 04:25:00,
2013-02-25 23:27:00,37.6,27.6,30.01,East,88,9.2,9.2,67,0.00,,,0.00,WeatherDisplay:10.37,2013-02-26 04:27:00,
2013-02-25 23:29:00,37.7,27.7,30.01,East,92,8.1,8.1,67,0.00,,,0.00,WeatherDisplay:10.37,2013-02-26 04:29:00,
2013-02-25 23:30:00,37.8,27.8,30.01,ESE,106,7.0,7.0,67,0.00,,,0.00,WeatherDisplay:10.37,2013-02-26 04:30:00,
2013-02-25 23:32:00,37.9,27.9,30.01,East,80,6.9,6.9,67,0.00,,,0.00,WeatherDisplay:10.37,2013-02-26 04:32:00,
2013-02-25 23:34:00,38.0,28.0,30.01,SE,127,5.8,5.8,67,0.00,,,0.00,WeatherDisplay:10.37,2013-02-26 04:34:00,
2013-02-25 23:35:00,38.0,28.0,30.01,ESE,118,9.2,9.2,67,0.00,,,0.00,WeatherDisplay:10.37,2013-02-26 04:35:00,
2013-02-25 23:37:00,37.9,27.9,30.01,East,85,7.0,7.0,67,0.00,,,0.00,WeatherDisplay:10.37,2013-02-26 04:37:00,
2013-02-25 23:39:00,38.0,28.0,30.01,East,80,10.4,10.4,67,0.00,,,0.00,WeatherDisplay:10.37,2013-02-26 04:39:00,
2013-02-25 23:41:00,38.0,28.0,30.01,East,87,10.4,10.4,67,0.00,,,0.00,WeatherDisplay:10.37,2013-02-26 04:41:00,
2013-02-25 23:42:00,38.0,28.0,30.01,East,94,7.0,7.0,67,0.00,,,0.00,WeatherDisplay:10.37,2013-02-26 04:42:00,
2013-02-25 23:43:00,38.0,28.0,30.01,SE,134,8.1,8.1,67,0.00,,,0.00,WeatherDisplay:10.37,2013-02-26 04:43:00,
2013-02-25 23:44:00,38.0,28.0,30.01,SE,139,8.1,8.1,67,0.00,,,0.00,WeatherDisplay:10.37,2013-02-26 04:44:00,
2013-02-25 23:46:00,38.0,28.0,30.01,SE,134,5.8,5.8,67,0.00,,,0.00,WeatherDisplay:10.37,2013-02-26 04:46:00,
2013-02-25 23:47:00,38.0,27.6,30.00,East,100,9.2,9.2,66,0.00,,,0.00,WeatherDisplay:10.37,2013-02-26 04:47:00,
2013-02-25 23:48:00,38.0,27.6,30.00,East,94,10.4,10.4,66,0.00,,,0.00,WeatherDisplay:10.37,2013-02-26 04:48:00,
2013-02-25 23:51:00,37.9,27.5,30.00,East,96,11.5,11.5,66,0.00,,,0.00,WeatherDisplay:10.37,2013-02-26 04:51:00,
2013-02-25 23:53:00,37.9,27.5,30.01,ESE,108,6.9,6.9,66,0.00,,,0.00,WeatherDisplay:10.37,2013-02-26 04:53:00,
2013-02-25 23:56:00,37.8,27.1,30.01,ESE,108,11.5,11.5,65,0.00,,,0.00,WeatherDisplay:10.37,2013-02-26 04:56:00,
2013-02-25 23:58:00,37.9,27.5,30.01,ESE,103,10.4,10.4,66,0.00,,,0.00,WeatherDisplay:10.37,2013-02-26 04:58:00,